M I D A S
Marine Information and Data Acquisition System
Tripno 1448 of the Zeeleeuw from 2008-03-31 08:09:42 to 2008-03-31 13:50:21
Back to CruiseResearch ActivitiesStationsMapUnderway DataData graphs

EquipmentUnitsComment
TimeDGPSUTC
LatitudeDGPSDM.mWGS84
LongitudeDGPSDM.mWGS84
TemperatureSBE03/SBE38deg celciusITS90
ConductivitySBE21S/mITS90
SalinitySBE21 Practical Salinity Units
ChlorophylAChelsea fluorimeterg/lCalibrated in Aceton
Missing or incorrect values are displayed as -999
Sea surface data collected by the RV Zeeleeuw from 2008-03-31 08:05:06 to 2008-03-31 14:01:52
                                                                                    Next 1000 lines
Time Latitude Longitude Temperature Conductivity Salinity ChlorophylA
2008-03-31 08:05:16 51°13.664 2°55.953 12.5481 0.147799 0.829184 -1.731873
2008-03-31 08:05:21 51°13.664 2°55.954 12.5485 0.147799 0.829199 -1.731873
2008-03-31 08:05:26 51°13.664 2°55.954 12.5487 0.147799 0.829214 -1.731873
2008-03-31 08:05:31 51°13.664 2°55.953 12.5487 0.147799 0.829229 -1.731873
2008-03-31 08:05:36 51°13.664 2°55.953 12.5488 0.147799 0.829258 -1.731873
2008-03-31 08:05:41 51°13.664 2°55.952 12.5491 0.147799 0.829258 -1.731873
2008-03-31 08:05:46 51°13.665 2°55.95 12.5493 0.147799 0.829258 -1.731873
2008-03-31 08:05:51 51°13.667 2°55.947 12.5496 0.147799 0.829288 -1.731873
2008-03-31 08:05:56 51°13.668 2°55.943 12.5497 0.147799 0.829303 -1.731873
2008-03-31 08:06:01 51°13.67 2°55.939 12.5499 0.147799 0.829333 -1.731873
2008-03-31 08:06:06 51°13.672 2°55.934 12.5502 0.147799 0.829347 -1.731873
2008-03-31 08:06:11 51°13.674 2°55.928 12.5503 0.147799 0.829362 -1.731873
2008-03-31 08:06:16 51°13.676 2°55.921 12.5506 0.147799 0.829362 -1.731873
2008-03-31 08:06:21 51°13.678 2°55.913 12.5509 0.147799 0.829392 -1.731873
2008-03-31 08:06:26 51°13.68 2°55.905 12.5509 0.147799 0.829407 -1.731873
2008-03-31 08:06:31 51°13.683 2°55.896 12.5511 0.147799 0.829437 -1.731873
2008-03-31 08:06:36 51°13.685 2°55.887 12.5514 0.147799 0.829451 -1.731873
2008-03-31 08:06:41 51°13.687 2°55.878 12.5517 0.147799 0.829466 -1.731873
2008-03-31 08:06:46 51°13.689 2°55.868 12.552 0.147799 0.829466 -1.731873
2008-03-31 08:06:51 51°13.691 2°55.859 12.5522 0.147799 0.829481 -1.731873
2008-03-31 08:06:56 51°13.693 2°55.85 12.5523 0.147696 0.828891 -1.731873
2008-03-31 08:07:01 51°13.695 2°55.842 12.5527 0.147696 0.828906 -1.731873
2008-03-31 08:07:06 51°13.696 2°55.833 12.5529 0.147696 0.828936 -1.731873
2008-03-31 08:07:11 51°13.698 2°55.825 12.553 0.147696 0.828936 -1.731873
2008-03-31 08:07:16 51°13.699 2°55.817 12.5533 0.147696 0.828936 -1.731873
2008-03-31 08:07:21 51°13.7 2°55.809 12.5538 0.147696 0.828951 -1.731873
2008-03-31 08:07:26 51°13.701 2°55.802 12.5539 0.147696 0.828966 -1.731873
2008-03-31 08:07:31 51°13.702 2°55.795 12.5541 0.147696 0.82898 -1.731873
2008-03-31 08:07:36 51°13.703 2°55.788 12.5544 0.147696 0.82901 -1.731873
2008-03-31 08:07:41 51°13.703 2°55.782 12.5544 0.147696 0.829025 -1.731873
2008-03-31 08:07:46 51°13.704 2°55.776 12.5546 0.147696 0.829025 -1.731873
2008-03-31 08:07:51 51°13.705 2°55.77 12.5551 0.147696 0.82904 -1.731873
2008-03-31 08:07:56 51°13.705 2°55.764 12.5551 0.147696 0.829055 -1.731873
2008-03-31 08:08:01 51°13.706 2°55.758 12.5554 0.147696 0.82907 -1.731873
2008-03-31 08:08:06 51°13.706 2°55.753 12.5555 0.147696 0.829084 -1.731873
2008-03-31 08:08:11 51°13.707 2°55.748 12.5559 0.147696 0.829099 -1.731873
2008-03-31 08:08:16 51°13.707 2°55.744 12.5564 0.147696 0.829099 -1.731873
2008-03-31 08:08:21 51°13.707 2°55.739 12.5563 0.147696 0.829114 -1.731873
2008-03-31 08:08:26 51°13.708 2°55.735 12.5567 0.147696 0.829144 -1.731873
2008-03-31 08:08:31 51°13.708 2°55.731 12.5567 0.147696 0.829159 -1.731873
2008-03-31 08:08:36 51°13.708 2°55.728 12.5572 0.147696 0.829174 -1.731873
2008-03-31 08:08:41 51°13.709 2°55.725 12.5572 0.147696 0.829188 -1.731873
2008-03-31 08:08:46 51°13.709 2°55.723 12.5573 0.147696 0.829203 -1.731873
2008-03-31 08:08:51 51°13.71 2°55.722 12.5579 0.147696 0.829203 -1.731873
2008-03-31 08:08:56 51°13.711 2°55.721 12.558 0.147696 0.829218 -1.731873
2008-03-31 08:09:01 51°13.712 2°55.721 12.5583 0.147696 0.829233 -1.731873
2008-03-31 08:09:06 51°13.713 2°55.722 12.5586 0.147696 0.829263 -1.731873
2008-03-31 08:09:11 51°13.714 2°55.722 12.5586 0.147696 0.829278 -1.731873
2008-03-31 08:09:16 51°13.715 2°55.723 12.5591 0.147696 0.829278 -1.731873
2008-03-31 08:09:21 51°13.717 2°55.724 12.5594 0.147696 0.829307 -1.731873
2008-03-31 08:09:26 51°13.719 2°55.726 12.5594 0.147696 0.829322 -1.731873
2008-03-31 08:09:31 51°13.721 2°55.727 12.5595 0.147696 0.829337 -1.731873
2008-03-31 08:09:36 51°13.723 2°55.728 12.5603 0.147696 0.829367 -1.731873
2008-03-31 08:09:41 51°13.725 2°55.729 12.5607 0.147696 0.829367 -1.731873
2008-03-31 08:09:46 51°13.727 2°55.73 12.5609 0.147696 0.829367 -1.731873
2008-03-31 08:09:51 51°13.728 2°55.73 12.5611 0.147696 0.829382 -1.731873
2008-03-31 08:09:56 51°13.729 2°55.73 12.5613 0.147696 0.829397 -1.731873
2008-03-31 08:10:01 51°13.729 2°55.729 12.5616 0.147696 0.829411 -1.731873
2008-03-31 08:10:06 51°13.728 2°55.729 12.5621 0.147696 0.829411 -1.731873
2008-03-31 08:10:11 51°13.727 2°55.728 12.5621 0.147593 0.828821 -1.731873
2008-03-31 08:10:16 51°13.725 2°55.727 12.5623 0.147593 0.828821 -1.731873
2008-03-31 08:10:21 51°13.723 2°55.727 12.5625 0.147593 0.828821 -1.731873
2008-03-31 08:10:24 51°13.722 2°55.726 12.5628 0.147593 0.828836 -1.731873
2008-03-31 08:10:24 51°13.722 2°55.726 12.5632 0.147593 0.828851 -1.731873
2008-03-31 08:10:24 51°13.722 2°55.726 12.5632 0.147593 0.828866 -1.731873
2008-03-31 08:10:24 51°13.722 2°55.726 12.5632 0.147593 0.828881 -1.731873
2008-03-31 08:10:46 51°13.715 2°55.722 12.5636 0.147593 0.828896 -1.731873
2008-03-31 08:10:51 51°13.715 2°55.722 12.5636 0.147593 0.828896 -1.731873
2008-03-31 08:10:56 51°13.715 2°55.722 12.564 0.147593 0.828925 -1.731873
2008-03-31 08:11:01 51°13.716 2°55.721 12.5644 0.147593 0.82894 -1.731873
2008-03-31 08:11:06 51°13.718 2°55.72 12.5645 0.147593 0.82897 -1.731873
2008-03-31 08:11:11 51°13.72 2°55.719 12.5648 0.147593 0.828985 -1.731873
2008-03-31 08:11:16 51°13.722 2°55.718 12.5651 0.147593 0.828985 -1.731873
2008-03-31 08:11:21 51°13.724 2°55.717 12.5655 0.147593 0.829 -1.731873
2008-03-31 08:11:26 51°13.727 2°55.716 12.5658 0.147593 0.829014 -1.731873
2008-03-31 08:11:31 51°13.73 2°55.714 12.566 0.147593 0.829029 -1.731873
2008-03-31 08:11:36 51°13.732 2°55.712 12.5661 0.147593 0.829029 -1.731873
2008-03-31 08:11:41 51°13.736 2°55.71 12.5663 0.147593 0.829044 -1.731873
2008-03-31 08:11:46 51°13.739 2°55.707 12.5666 0.147593 0.829044 -1.731873
2008-03-31 08:11:51 51°13.743 2°55.704 12.5668 0.147593 0.829059 -1.731873
2008-03-31 08:11:56 51°13.747 2°55.701 12.5667 0.147593 0.829059 -1.731873
2008-03-31 08:12:01 51°13.751 2°55.698 12.5669 0.147593 0.829089 -1.731873
2008-03-31 08:12:06 51°13.755 2°55.694 12.5675 0.147593 0.829104 -1.731873
2008-03-31 08:12:10 51°13.759 2°55.691 12.5675 0.147593 0.829119 -1.731873
2008-03-31 08:12:15 51°13.764 2°55.687 12.5677 0.147593 0.829148 -1.731873
2008-03-31 08:12:20 51°13.77 2°55.682 12.568 0.147593 0.829148 -1.731873
2008-03-31 08:12:26 51°13.777 2°55.677 12.5683 0.147593 0.829178 -1.731873
2008-03-31 08:12:31 51°13.783 2°55.672 12.5684 0.147593 0.829193 -1.731873
2008-03-31 08:12:36 51°13.789 2°55.668 12.5689 0.147593 0.829208 -1.731873
2008-03-31 08:12:41 51°13.795 2°55.663 12.5689 0.147593 0.829223 -1.731873
2008-03-31 08:12:46 51°13.801 2°55.658 12.5691 0.147593 0.829223 -1.731873
2008-03-31 08:12:51 51°13.808 2°55.653 12.5694 0.147593 0.829238 -1.731873
2008-03-31 08:12:56 51°13.815 2°55.648 12.5696 0.147593 0.829238 -1.731873
2008-03-31 08:13:01 51°13.821 2°55.643 12.5697 0.147593 0.829252 -1.731873
2008-03-31 08:13:06 51°13.828 2°55.638 12.57 0.147593 0.829282 -1.731873
2008-03-31 08:13:11 51°13.835 2°55.632 12.5701 0.147593 0.829297 -1.731873
2008-03-31 08:13:16 51°13.842 2°55.627 12.5705 0.147593 0.829297 -1.731873
2008-03-31 08:13:21 51°13.849 2°55.622 12.5708 0.147593 0.829312 -1.731873
2008-03-31 08:13:26 51°13.856 2°55.617 12.5711 0.147593 0.829357 -1.731873
2008-03-31 08:13:31 51°13.862 2°55.613 12.5713 0.147593 0.829357 -1.731873
2008-03-31 08:13:36 51°13.869 2°55.608 12.5717 0.147593 0.829372 -1.731873
2008-03-31 08:13:41 51°13.875 2°55.603 12.5718 0.14749 0.828796 -1.731873
2008-03-31 08:13:46 51°13.881 2°55.599 12.572 0.14749 0.828796 -1.731873
2008-03-31 08:13:51 51°13.888 2°55.594 12.5722 0.14749 0.828811 -1.731873
2008-03-31 08:13:56 51°13.894 2°55.59 12.5725 0.14749 0.828826 -1.731873
2008-03-31 08:14:01 51°13.9 2°55.585 12.5728 0.14749 0.82884 -1.731873
2008-03-31 08:14:06 51°13.906 2°55.581 12.5732 0.14749 0.828855 -1.731873
2008-03-31 08:14:11 51°13.913 2°55.576 12.5733 0.14749 0.82887 -1.731873
2008-03-31 08:14:15 51°13.917 2°55.573 12.5737 0.14749 0.828885 -1.731873
2008-03-31 08:14:21 51°13.924 2°55.569 12.5739 0.14749 0.828885 -1.731873
2008-03-31 08:14:26 51°13.93 2°55.565 12.5741 0.14749 0.8289 -1.731873
2008-03-31 08:14:31 51°13.936 2°55.56 12.5742 0.14749 0.828915 -1.731873
2008-03-31 08:14:36 51°13.942 2°55.556 12.5745 0.14749 0.82893 -1.731873
2008-03-31 08:14:41 51°13.947 2°55.552 12.5754 0.14749 0.828945 -1.731873
2008-03-31 08:14:46 51°13.953 2°55.548 12.5756 0.14749 0.828945 -1.731873
2008-03-31 08:14:51 51°13.959 2°55.544 12.5756 0.14749 0.82896 -1.731873
2008-03-31 08:14:56 51°13.965 2°55.539 12.576 0.14749 0.828974 -1.731873
2008-03-31 08:15:01 51°13.97 2°55.535 12.5762 0.14749 0.828989 -1.731873
2008-03-31 08:15:06 51°13.976 2°55.531 12.5769 0.14749 0.829004 -1.731873
2008-03-31 08:15:11 51°13.982 2°55.527 12.5769 0.14749 0.829019 -1.731873
2008-03-31 08:15:16 51°13.987 2°55.522 12.5771 0.14749 0.829019 -1.731873
2008-03-31 08:15:21 51°13.993 2°55.518 12.5775 0.14749 0.829034 -1.731873
2008-03-31 08:15:26 51°13.999 2°55.514 12.5778 0.14749 0.829049 -1.731873
2008-03-31 08:15:31 51°14.004 2°55.509 12.5784 0.14749 0.829064 -1.731873
2008-03-31 08:15:36 51°14.01 2°55.505 12.5787 0.14749 0.829079 -1.731873
2008-03-31 08:15:41 51°14.016 2°55.501 12.579 0.14749 0.829093 -1.731873
2008-03-31 08:15:46 51°14.021 2°55.497 12.5791 0.14749 0.829093 -1.731873
2008-03-31 08:15:51 51°14.027 2°55.492 12.5799 0.14749 0.829108 -1.731873
2008-03-31 08:15:56 51°14.033 2°55.488 12.5801 0.14749 0.829123 -1.731873
2008-03-31 08:16:01 51°14.038 2°55.484 12.5804 0.14749 0.829153 -1.731873
2008-03-31 08:16:06 51°14.044 2°55.48 12.5807 0.14749 0.829168 -1.731873
2008-03-31 08:16:11 51°14.049 2°55.476 12.5811 0.14749 0.829183 -1.731873
2008-03-31 08:16:16 51°14.055 2°55.472 12.5814 0.14749 0.829183 -1.731873
2008-03-31 08:16:21 51°14.061 2°55.467 12.5816 0.14749 0.829198 -1.731873
2008-03-31 08:16:26 51°14.066 2°55.463 12.5821 0.14749 0.829213 -1.731873
2008-03-31 08:16:31 51°14.072 2°55.458 12.5823 0.14749 0.829227 -1.731873
2008-03-31 08:16:36 51°14.078 2°55.454 12.5826 0.14749 0.829242 -1.731873
2008-03-31 08:16:41 51°14.083 2°55.449 12.5829 0.14749 0.829257 -1.731873
2008-03-31 08:16:46 51°14.089 2°55.445 12.5832 0.14749 0.829257 -1.731873
2008-03-31 08:16:51 51°14.095 2°55.44 12.5836 0.14749 0.829272 -1.731873
2008-03-31 08:16:56 51°14.1 2°55.435 12.5839 0.14749 0.829287 -1.731873
2008-03-31 08:17:01 51°14.106 2°55.431 12.584 0.14749 0.829302 -1.731873
2008-03-31 08:17:06 51°14.111 2°55.427 12.5845 0.14749 0.829317 -1.731873
2008-03-31 08:17:11 51°14.117 2°55.422 12.585 0.147387 0.828726 -1.731873
2008-03-31 08:17:16 51°14.123 2°55.417 12.5852 0.147387 0.828726 -1.731873
2008-03-31 08:17:21 51°14.129 2°55.412 12.5858 0.147387 0.828741 -1.731873
2008-03-31 08:17:26 51°14.135 2°55.407 12.586 0.147387 0.828756 -1.731873
2008-03-31 08:17:30 51°14.14 2°55.403 12.586 0.147387 0.828771 -1.731873
2008-03-31 08:17:35 51°14.147 2°55.397 12.5866 0.147387 0.828785 -1.731873
2008-03-31 08:17:40 51°14.153 2°55.39 12.587 0.147387 0.8288 -1.731873
2008-03-31 08:17:46 51°14.161 2°55.383 12.5875 0.147387 0.8288 -1.731873
2008-03-31 08:17:51 51°14.168 2°55.376 12.5873 0.147387 0.828815 -1.731873
2008-03-31 08:17:56 51°14.175 2°55.369 12.5882 0.147387 0.82883 -1.731873
2008-03-31 08:18:01 51°14.181 2°55.362 12.5882 0.147387 0.828845 -1.731873
2008-03-31 08:18:06 51°14.188 2°55.355 12.5887 0.147387 0.82886 -1.731873
2008-03-31 08:18:11 51°14.194 2°55.347 12.5891 0.147387 0.828875 -1.731873
2008-03-31 08:18:16 51°14.201 2°55.339 12.5893 0.147387 0.828875 -1.731873
2008-03-31 08:18:21 51°14.207 2°55.331 12.5899 0.147387 0.82889 -1.731873
2008-03-31 08:18:26 51°14.213 2°55.323 12.5901 0.147387 0.828905 -1.731873
2008-03-31 08:18:31 51°14.219 2°55.315 12.5903 0.147387 0.828919 -1.731873
2008-03-31 08:18:36 51°14.225 2°55.307 12.5909 0.147387 0.828934 -1.731873
2008-03-31 08:18:41 51°14.231 2°55.298 12.5909 0.147387 0.828949 -1.731873
2008-03-31 08:18:46 51°14.237 2°55.29 12.5913 0.147387 0.828949 -1.731873
2008-03-31 08:18:50 51°14.242 2°55.283 12.5919 0.147387 0.828964 -1.731873
2008-03-31 08:18:55 51°14.248 2°55.274 12.592 0.147387 0.828979 -1.731873
2008-03-31 08:19:00 51°14.253 2°55.265 12.5923 0.147387 0.828994 -1.731873
2008-03-31 08:19:05 51°14.259 2°55.256 12.5928 0.147387 0.829009 -1.731873
2008-03-31 08:19:10 51°14.264 2°55.247 12.5932 0.147387 0.829024 -1.731873
2008-03-31 08:19:14 51°14.269 2°55.239 12.5937 0.147387 0.829024 -1.731873
2008-03-31 08:19:19 51°14.274 2°55.229 12.5938 0.147387 0.829039 -1.731873
2008-03-31 08:19:24 51°14.279 2°55.219 12.5941 0.147387 0.829054 -1.731873
2008-03-31 08:19:29 51°14.283 2°55.208 12.5946 0.147387 0.829068 -1.731873
2008-03-31 08:19:34 51°14.289 2°55.197 12.595 0.147387 0.829083 -1.731873
2008-03-31 08:19:38 51°14.293 2°55.188 12.5953 0.147387 0.829083 -1.731873
2008-03-31 08:19:44 51°14.3 2°55.174 12.5959 0.147387 0.829098 -1.731873
2008-03-31 08:19:48 51°14.305 2°55.164 12.5959 0.147387 0.829098 -1.731873
2008-03-31 08:19:53 51°14.312 2°55.152 12.5961 0.147387 0.829113 -1.731873
2008-03-31 08:19:58 51°14.318 2°55.14 12.5966 0.147387 0.829113 -1.731873
2008-03-31 08:20:03 51°14.326 2°55.127 12.597 0.147387 0.829128 -1.731873
2008-03-31 08:20:08 51°14.334 2°55.114 12.597 0.147387 0.829143 -1.731873
2008-03-31 08:20:13 51°14.342 2°55.101 12.5975 0.147387 0.829143 -1.731873
2008-03-31 08:20:18 51°14.351 2°55.088 12.5979 0.147387 0.829158 -1.731873
2008-03-31 08:20:23 51°14.361 2°55.075 12.5983 0.147387 0.829173 -1.731873
2008-03-31 08:20:27 51°14.369 2°55.065 12.5988 0.147387 0.829188 -1.731873
2008-03-31 08:20:33 51°14.382 2°55.05 12.5992 0.147387 0.829217 -1.731873
2008-03-31 08:20:38 51°14.394 2°55.038 12.5992 0.147387 0.829232 -1.731873
2008-03-31 08:20:43 51°14.405 2°55.027 12.5994 0.147387 0.829232 -1.731873
2008-03-31 08:20:47 51°14.415 2°55.018 12.6 0.147284 0.828641 -1.731873
2008-03-31 08:20:53 51°14.431 2°55.007 12.6002 0.147387 0.829262 -1.731873
2008-03-31 08:20:58 51°14.445 2°54.999 12.6007 0.147284 0.828671 -1.731873
2008-03-31 08:21:03 51°14.459 2°54.992 12.6009 0.147284 0.828686 -1.731873
2008-03-31 08:21:07 51°14.471 2°54.986 12.6011 0.147284 0.828701 -1.731873
2008-03-31 08:21:13 51°14.489 2°54.981 12.6018 0.147284 0.828701 -1.731873
2008-03-31 08:21:18 51°14.505 2°54.979 12.6018 0.147284 0.828701 -1.731873
2008-03-31 08:21:23 51°14.52 2°54.979 12.6028 0.147284 0.828716 -1.731873
2008-03-31 08:21:27 51°14.533 2°54.98 12.6032 0.147284 0.82876 -1.731873
2008-03-31 08:21:33 51°14.553 2°54.981 12.6034 0.147284 0.828775 -1.731873
2008-03-31 08:21:38 51°14.57 2°54.984 12.6039 0.147284 0.828805 -1.731873
2008-03-31 08:21:43 51°14.588 2°54.987 12.6043 0.147284 0.828805 -1.731873
2008-03-31 08:21:47 51°14.602 2°54.988 12.6049 0.147284 0.82882 -1.731873
2008-03-31 08:21:53 51°14.623 2°54.992 12.6056 0.147284 0.828835 -1.731873
2008-03-31 08:21:58 51°14.641 2°54.994 12.606 0.147284 0.82885 -1.731873
2008-03-31 08:22:03 51°14.659 2°54.998 12.6071 0.147284 0.82885 -1.766697
2008-03-31 08:22:07 51°14.673 2°55.001 12.6069 0.147284 0.828865 -1.731873
2008-03-31 08:22:13 51°14.694 2°55.005 12.6072 0.147284 0.828865 -1.731873
2008-03-31 08:22:18 51°14.712 2°55.01 12.6084 0.147284 0.828865 -1.766697
2008-03-31 08:22:23 51°14.73 2°55.014 12.6086 0.147284 0.828894 -1.731873
2008-03-31 08:22:28 51°14.748 2°55.016 12.6093 0.147284 0.828909 -1.731873
2008-03-31 08:22:33 51°14.766 2°55.017 12.61 0.147284 0.828954 -1.731873
2008-03-31 08:22:38 51°14.784 2°55.016 12.6105 0.147284 0.828999 -1.731873
2008-03-31 08:22:42 51°14.798 2°55.013 12.6111 0.147284 0.828999 -1.731873
2008-03-31 08:22:48 51°14.819 2°55.006 12.6118 0.147284 0.829014 -1.662225
2008-03-31 08:22:53 51°14.836 2°54.998 12.6122 0.147284 0.829044 -1.766697
2008-03-31 08:22:58 51°14.852 2°54.989 12.6128 0.147284 0.829058 -1.731873
2008-03-31 08:23:03 51°14.869 2°54.978 12.6134 0.147284 0.829058 -1.731873
2008-03-31 08:23:07 51°14.881 2°54.968 12.6141 0.147284 0.829073 -1.731873
2008-03-31 08:23:13 51°14.899 2°54.951 12.6143 0.147284 0.829073 -1.731873
2008-03-31 08:23:18 51°14.913 2°54.935 12.6152 0.147284 0.829088 -1.697049
2008-03-31 08:23:22 51°14.923 2°54.921 12.6154 0.147284 0.829118 -1.731873
2008-03-31 08:23:27 51°14.936 2°54.903 12.6157 0.147284 0.829118 -1.731873
2008-03-31 08:23:33 51°14.952 2°54.882 12.6161 0.147284 0.829088 -1.731873
2008-03-31 08:23:38 51°14.966 2°54.866 12.6164 0.147284 0.829103 -1.731873
2008-03-31 08:23:43 51°14.98 2°54.849 12.6171 0.147284 0.829103 -1.731873
2008-03-31 08:23:47 51°14.991 2°54.835 12.6172 0.147284 0.829103 -1.731873
2008-03-31 08:23:53 51°15.007 2°54.814 12.6181 0.147284 0.829133 -1.731873
2008-03-31 08:23:58 51°15.02 2°54.796 12.6186 0.147284 0.829163 -1.731873
2008-03-31 08:24:03 51°15.032 2°54.776 12.619 0.147284 0.829208 -1.731873
2008-03-31 08:24:07 51°15.041 2°54.759 12.6195 0.147284 0.829237 -1.731873
2008-03-31 08:24:13 51°15.052 2°54.733 12.6199 0.147284 0.829237 -1.731873
2008-03-31 08:24:18 51°15.061 2°54.71 12.6206 0.147284 0.829252 -1.731873
2008-03-31 08:24:23 51°15.07 2°54.687 12.6209 0.147284 0.829252 -1.731873
2008-03-31 08:24:27 51°15.077 2°54.668 12.6211 0.147284 0.829267 -1.731873
2008-03-31 08:24:33 51°15.087 2°54.64 12.6219 0.147284 0.829267 -1.731873
2008-03-31 08:24:38 51°15.095 2°54.616 12.6224 0.147284 0.829267 -1.731873
2008-03-31 08:24:43 51°15.103 2°54.592 12.6227 0.147284 0.829267 -1.731873
2008-03-31 08:24:47 51°15.109 2°54.573 12.6232 0.147284 0.829282 -1.731873
2008-03-31 08:24:53 51°15.118 2°54.543 12.6238 0.147181 0.82869 -1.731873
2008-03-31 08:24:58 51°15.125 2°54.519 12.6242 0.147181 0.82869 -1.731873
2008-03-31 08:25:02 51°15.131 2°54.499 12.6245 0.147181 0.828705 -1.731873
2008-03-31 08:25:08 51°15.139 2°54.469 12.6251 0.147181 0.828735 -1.731873
2008-03-31 08:25:13 51°15.146 2°54.444 12.6255 0.147181 0.828735 -1.731873
2008-03-31 08:25:18 51°15.154 2°54.419 12.6259 0.147181 0.82875 -1.766697
2008-03-31 08:25:23 51°15.161 2°54.394 12.6266 0.147181 0.82878 -1.731873
2008-03-31 08:25:27 51°15.167 2°54.375 12.6266 0.147181 0.82881 -1.731873
2008-03-31 08:25:33 51°15.176 2°54.345 12.6276 0.147181 0.828825 -1.731873
2008-03-31 08:25:38 51°15.183 2°54.319 12.6279 0.147181 0.828855 -1.731873
2008-03-31 08:25:43 51°15.189 2°54.294 12.6286 0.147181 0.828855 -1.731873
2008-03-31 08:25:47 51°15.195 2°54.274 12.6292 0.147181 0.828869 -1.731873
2008-03-31 08:25:53 51°15.202 2°54.243 12.6297 0.147181 0.828899 -1.731873
2008-03-31 08:25:58 51°15.208 2°54.217 12.6302 0.147181 0.828899 -1.731873
2008-03-31 08:26:03 51°15.213 2°54.191 12.6304 0.147181 0.828914 -1.731873
2008-03-31 08:26:07 51°15.218 2°54.17 12.6311 0.147181 0.828929 -1.731873
2008-03-31 08:26:13 51°15.225 2°54.139 12.6314 0.147181 0.828929 -1.731873
2008-03-31 08:26:18 51°15.23 2°54.112 12.6321 0.147181 0.828944 -1.731873
2008-03-31 08:26:23 51°15.236 2°54.086 12.6326 0.147181 0.828974 -1.731873
2008-03-31 08:26:27 51°15.24 2°54.065 12.6331 0.147181 0.828989 -1.731873
2008-03-31 08:26:33 51°15.247 2°54.034 12.6338 0.147181 0.829004 -1.731873
2008-03-31 08:26:38 51°15.252 2°54.007 12.6339 0.147181 0.829019 -1.766697
2008-03-31 08:26:43 51°15.258 2°53.981 12.6349 0.147181 0.829019 -1.766697
2008-03-31 08:26:47 51°15.263 2°53.96 12.6352 0.147181 0.829034 -1.731873
2008-03-31 08:26:53 51°15.27 2°53.929 12.6356 0.147181 0.829049 -1.766697
2008-03-31 08:26:58 51°15.276 2°53.903 12.6362 0.147181 0.829063 -1.731873
2008-03-31 08:27:03 51°15.282 2°53.877 12.6369 0.147181 0.829093 -1.766697
2008-03-31 08:27:08 51°15.288 2°53.851 12.6375 0.147181 0.829123 -1.766697
2008-03-31 08:27:13 51°15.294 2°53.825 12.6381 0.147181 0.829123 -1.766697
2008-03-31 08:27:18 51°15.3 2°53.799 12.6384 0.147181 0.829138 -1.731873
2008-03-31 08:27:23 51°15.306 2°53.773 12.6392 0.147181 0.829168 -1.731873
2008-03-31 08:27:28 51°15.312 2°53.747 12.6396 0.147181 0.829168 -1.731873
2008-03-31 08:27:33 51°15.317 2°53.721 12.6403 0.147181 0.829183 -1.731873
2008-03-31 08:27:38 51°15.322 2°53.695 12.6411 0.147181 0.829243 -1.731873
2008-03-31 08:27:43 51°15.325 2°53.668 12.6411 0.147181 0.829243 -1.731873
2008-03-31 08:27:48 51°15.329 2°53.641 12.6422 0.147181 0.829243 -1.731873
2008-03-31 08:27:53 51°15.331 2°53.614 12.6426 0.147181 0.829273 -1.731873
2008-03-31 08:27:58 51°15.334 2°53.588 12.6433 0.147181 0.829273 -1.731873
2008-03-31 08:28:02 51°15.335 2°53.566 12.6436 0.147181 0.829287 -1.731873
2008-03-31 08:28:07 51°15.337 2°53.539 12.6444 0.147181 0.829287 -1.731873
2008-03-31 08:28:13 51°15.34 2°53.507 12.6448 0.147181 0.829287 -1.731873
2008-03-31 08:28:18 51°15.341 2°53.48 12.6455 0.147181 0.829302 -1.731873
2008-03-31 08:28:23 51°15.343 2°53.453 12.646 0.147181 0.829317 -1.731873
2008-03-31 08:28:27 51°15.344 2°53.431 12.6468 0.147078 0.82871 -1.731873
2008-03-31 08:28:33 51°15.347 2°53.399 12.6471 0.147078 0.82874 -1.731873
2008-03-31 08:28:38 51°15.348 2°53.372 12.6476 0.147078 0.828755 -1.731873
2008-03-31 08:28:43 51°15.351 2°53.345 12.648 0.147078 0.82877 -1.731873
2008-03-31 08:28:47 51°15.352 2°53.324 12.6491 0.147078 0.82877 -1.731873
2008-03-31 08:28:53 51°15.354 2°53.292 12.6495 0.147078 0.8288 -1.731873
2008-03-31 08:28:58 51°15.356 2°53.265 12.6499 0.147078 0.828815 -1.766697
2008-03-31 08:29:03 51°15.358 2°53.238 12.6504 0.147078 0.828845 -1.731873
2008-03-31 08:29:08 51°15.36 2°53.211 12.651 0.147078 0.828845 -1.731873
2008-03-31 08:29:13 51°15.362 2°53.184 12.6518 0.147078 0.828845 -1.731873
2008-03-31 08:29:18 51°15.364 2°53.157 12.6523 0.147078 0.828874 -1.731873
2008-03-31 08:29:23 51°15.366 2°53.13 12.653 0.147078 0.828889 -1.731873
2008-03-31 08:29:27 51°15.368 2°53.108 12.6532 0.147078 0.828889 -1.731873
2008-03-31 08:29:33 51°15.37 2°53.076 12.6542 0.147078 0.828904 -1.731873
2008-03-31 08:29:38 51°15.372 2°53.049 12.6548 0.147078 0.828919 -1.731873
2008-03-31 08:29:42 51°15.374 2°53.027 12.6555 0.147078 0.828919 -1.731873
2008-03-31 08:29:48 51°15.377 2°52.995 12.656 0.147078 0.828934 -1.731873
2008-03-31 08:29:53 51°15.378 2°52.968 12.6564 0.147078 0.828949 -1.731873
2008-03-31 08:29:58 51°15.381 2°52.941 12.6571 0.147078 0.828964 -1.731873
2008-03-31 08:30:03 51°15.383 2°52.914 12.6578 0.147078 0.828994 -1.766697
2008-03-31 08:30:07 51°15.385 2°52.892 12.6584 0.147078 0.828994 -1.731873
2008-03-31 08:30:13 51°15.387 2°52.86 12.6591 0.147078 0.829024 -1.731873
2008-03-31 08:30:18 51°15.389 2°52.833 12.6595 0.147078 0.829024 -1.731873
2008-03-31 08:30:23 51°15.392 2°52.806 12.6602 0.147078 0.829039 -1.731873
2008-03-31 08:30:27 51°15.393 2°52.784 12.6607 0.147078 0.829054 -1.731873
2008-03-31 08:30:33 51°15.396 2°52.752 12.6616 0.147078 0.829069 -1.731873
2008-03-31 08:30:38 51°15.398 2°52.725 12.6622 0.147078 0.829084 -1.731873
2008-03-31 08:30:43 51°15.4 2°52.698 12.6629 0.147078 0.829084 -1.731873
2008-03-31 08:30:47 51°15.402 2°52.676 12.6635 0.147078 0.829099 -1.731873
2008-03-31 08:30:53 51°15.405 2°52.643 12.6638 0.147078 0.829114 -1.731873
2008-03-31 08:30:58 51°15.407 2°52.616 12.6649 0.147078 0.829128 -1.731873
2008-03-31 08:31:03 51°15.409 2°52.589 12.6653 0.147078 0.829143 -1.731873
2008-03-31 08:31:07 51°15.411 2°52.568 12.6661 0.147078 0.829158 -1.731873
2008-03-31 08:31:13 51°15.414 2°52.535 12.6667 0.147078 0.829158 -1.731873
2008-03-31 08:31:18 51°15.417 2°52.508 12.6675 0.147078 0.829173 -1.731873
2008-03-31 08:31:23 51°15.419 2°52.481 12.668 0.147078 0.829188 -1.731873
2008-03-31 08:31:28 51°15.421 2°52.454 12.6685 0.147078 0.829218 -1.731873
2008-03-31 08:31:33 51°15.424 2°52.427 12.6691 0.147078 0.829233 -1.731873
2008-03-31 08:31:38 51°15.426 2°52.4 12.67 0.147078 0.829233 -1.731873
2008-03-31 08:31:42 51°15.428 2°52.378 12.6706 0.147078 0.829233 -1.731873
2008-03-31 08:31:48 51°15.428 2°52.346 12.6713 0.147078 0.829278 -1.731873
2008-03-31 08:31:53 51°15.43 2°52.319 12.6719 0.147078 0.829278 -1.731873
2008-03-31 08:31:58 51°15.43 2°52.292 12.6725 0.147078 0.829308 -1.731873
2008-03-31 08:32:03 51°15.431 2°52.265 12.6736 0.147078 0.829308 -1.731873
2008-03-31 08:32:07 51°15.431 2°52.243 12.6736 0.146975 0.828715 -1.731873
2008-03-31 08:32:13 51°15.431 2°52.21 12.6746 0.146975 0.82873 -1.731873
2008-03-31 08:32:18 51°15.431 2°52.183 12.6751 0.146975 0.82873 -1.731873
2008-03-31 08:32:23 51°15.431 2°52.156 12.6756 0.146975 0.82873 -1.731873
2008-03-31 08:32:27 51°15.431 2°52.135 12.6766 0.146975 0.82873 -1.731873
2008-03-31 08:32:33 51°15.431 2°52.102 12.6777 0.146975 0.82876 -1.731873
2008-03-31 08:32:38 51°15.431 2°52.075 12.6778 0.146975 0.828775 -1.731873
2008-03-31 08:32:43 51°15.431 2°52.048 12.6783 0.146975 0.828775 -1.731873
2008-03-31 08:32:47 51°15.432 2°52.026 12.6794 0.146975 0.82879 -1.731873
2008-03-31 08:32:53 51°15.432 2°51.994 12.6799 0.146975 0.828805 -1.731873
2008-03-31 08:32:58 51°15.433 2°51.966 12.6806 0.146975 0.82882 -1.731873
2008-03-31 08:33:03 51°15.433 2°51.939 12.6811 0.146975 0.82885 -1.766697
2008-03-31 08:33:07 51°15.434 2°51.918 12.6817 0.146975 0.828865 -1.731873
2008-03-31 08:33:13 51°15.435 2°51.885 12.6826 0.146975 0.828865 -1.731873
2008-03-31 08:33:18 51°15.436 2°51.858 12.6831 0.146975 0.828895 -1.731873
2008-03-31 08:33:23 51°15.436 2°51.831 12.6838 0.146975 0.82891 -1.731873
2008-03-31 08:33:28 51°15.436 2°51.804 12.6846 0.146975 0.828924 -1.731873
2008-03-31 08:33:33 51°15.437 2°51.777 12.6855 0.146975 0.828924 -1.731873
2008-03-31 08:33:38 51°15.438 2°51.75 12.6857 0.146975 0.828939 -1.731873
2008-03-31 08:33:43 51°15.439 2°51.722 12.6864 0.146975 0.828939 -1.766697
2008-03-31 08:33:48 51°15.44 2°51.695 12.6872 0.146975 0.828939 -1.766697
2008-03-31 08:33:53 51°15.442 2°51.668 12.6879 0.146975 0.828969 -1.731873
2008-03-31 08:33:58 51°15.444 2°51.641 12.6885 0.146975 0.828999 -1.731873
2008-03-31 08:34:03 51°15.445 2°51.614 12.6894 0.146975 0.829014 -1.731873
2008-03-31 08:34:07 51°15.446 2°51.592 12.6895 0.146975 0.829044 -1.731873
2008-03-31 08:34:13 51°15.448 2°51.56 12.6906 0.146975 0.829044 -1.731873
2008-03-31 08:34:18 51°15.45 2°51.533 12.6912 0.146975 0.829059 -1.731873
2008-03-31 08:34:22 51°15.451 2°51.511 12.6917 0.146975 0.829089 -1.731873
2008-03-31 08:34:27 51°15.452 2°51.484 12.6926 0.146975 0.829104 -1.731873
2008-03-31 08:34:33 51°15.454 2°51.451 12.6934 0.146975 0.829119 -1.731873
2008-03-31 08:34:38 51°15.455 2°51.424 12.6942 0.146975 0.829134 -1.731873
2008-03-31 08:34:43 51°15.456 2°51.397 12.6949 0.146975 0.829134 -1.731873
2008-03-31 08:34:47 51°15.457 2°51.375 12.6956 0.146975 0.829164 -1.731873
2008-03-31 08:34:53 51°15.458 2°51.343 12.6963 0.146975 0.829179 -1.731873
2008-03-31 08:34:58 51°15.459 2°51.316 12.6971 0.146975 0.829194 -1.731873
2008-03-31 08:35:03 51°15.46 2°51.289 12.6977 0.146975 0.829209 -1.731873
2008-03-31 08:35:07 51°15.461 2°51.267 12.6982 0.146975 0.829224 -1.731873
2008-03-31 08:35:13 51°15.462 2°51.235 12.6991 0.146975 0.829224 -1.731873
2008-03-31 08:35:18 51°15.463 2°51.208 12.6998 0.146975 0.829239 -1.731873
2008-03-31 08:35:23 51°15.464 2°51.181 12.7007 0.146975 0.829254 -1.731873
2008-03-31 08:35:28 51°15.465 2°51.153 12.701 0.146975 0.829283 -1.731873
2008-03-31 08:35:33 51°15.467 2°51.126 12.7017 0.146872 0.82869 -1.731873
2008-03-31 08:35:38 51°15.468 2°51.099 12.7024 0.146872 0.828705 -1.731873
2008-03-31 08:35:43 51°15.47 2°51.072 12.7031 0.146872 0.82872 -1.731873
2008-03-31 08:35:47 51°15.471 2°51.051 12.7037 0.146872 0.82872 -1.731873
2008-03-31 08:35:53 51°15.474 2°51.018 12.7047 0.146872 0.828735 -1.731873
2008-03-31 08:35:58 51°15.477 2°50.991 12.7049 0.146872 0.828765 -1.731873
2008-03-31 08:36:03 51°15.48 2°50.964 12.7062 0.146872 0.82878 -1.731873
2008-03-31 08:36:07 51°15.482 2°50.943 12.7067 0.146872 0.828795 -1.731873
2008-03-31 08:36:13 51°15.485 2°50.91 12.7075 0.146872 0.828795 -1.731873
2008-03-31 08:36:18 51°15.487 2°50.883 12.7082 0.146872 0.828825 -1.731873
2008-03-31 08:36:23 51°15.489 2°50.856 12.709 0.146872 0.828855 -1.731873
2008-03-31 08:36:28 51°15.492 2°50.829 12.7098 0.146872 0.82887 -1.731873
2008-03-31 08:36:33 51°15.494 2°50.802 12.7108 0.146872 0.828885 -1.731873
2008-03-31 08:36:38 51°15.496 2°50.775 12.7115 0.146872 0.8289 -1.731873
2008-03-31 08:36:43 51°15.498 2°50.748 12.7122 0.146872 0.8289 -1.731873
2008-03-31 08:36:47 51°15.499 2°50.726 12.7127 0.146872 0.828915 -1.731873
2008-03-31 08:36:53 51°15.502 2°50.694 12.7138 0.146872 0.828915 -1.731873
2008-03-31 08:36:58 51°15.504 2°50.667 12.7144 0.146872 0.828945 -1.731873
2008-03-31 08:37:03 51°15.506 2°50.64 12.7153 0.146872 0.82896 -1.731873
2008-03-31 08:37:07 51°15.508 2°50.619 12.7156 0.146872 0.828975 -1.731873
2008-03-31 08:37:13 51°15.51 2°50.586 12.7166 0.146872 0.829005 -1.731873
2008-03-31 08:37:18 51°15.512 2°50.559 12.7175 0.146872 0.829005 -1.731873
2008-03-31 08:37:23 51°15.514 2°50.532 12.7184 0.146872 0.829035 -1.731873
2008-03-31 08:37:27 51°15.516 2°50.51 12.7189 0.146872 0.82905 -1.731873
2008-03-31 08:37:33 51°15.518 2°50.478 12.7196 0.146872 0.82905 -1.731873
2008-03-31 08:37:38 51°15.52 2°50.451 12.7204 0.146872 0.82908 -1.731873
2008-03-31 08:37:43 51°15.522 2°50.424 12.7212 0.146872 0.82908 -1.731873
2008-03-31 08:37:47 51°15.523 2°50.402 12.7222 0.146872 0.829095 -1.731873
2008-03-31 08:37:53 51°15.526 2°50.37 12.7227 0.146872 0.829109 -1.731873
2008-03-31 08:37:58 51°15.528 2°50.342 12.7233 0.146872 0.829124 -1.731873
2008-03-31 08:38:03 51°15.53 2°50.315 12.7243 0.146872 0.829139 -1.731873
2008-03-31 08:38:08 51°15.532 2°50.288 12.7252 0.146872 0.829154 -1.731873
2008-03-31 08:38:13 51°15.534 2°50.261 12.7257 0.146872 0.829154 -1.731873
2008-03-31 08:38:18 51°15.536 2°50.234 12.7265 0.146872 0.829169 -1.731873
2008-03-31 08:38:23 51°15.538 2°50.206 12.7273 0.146872 0.829184 -1.731873
2008-03-31 08:38:28 51°15.54 2°50.179 12.7282 0.146872 0.829214 -1.731873
2008-03-31 08:38:33 51°15.542 2°50.152 12.7289 0.146872 0.829229 -1.766697
2008-03-31 08:38:38 51°15.544 2°50.125 12.7297 0.146872 0.829229 -1.731873
2008-03-31 08:38:43 51°15.547 2°50.097 12.7307 0.146872 0.829229 -1.731873
2008-03-31 08:38:48 51°15.549 2°50.07 12.7311 0.14677 0.828651 -1.731873
2008-03-31 08:38:53 51°15.552 2°50.043 12.7321 0.14677 0.828666 -1.731873
2008-03-31 08:38:58 51°15.555 2°50.016 12.7327 0.14677 0.828681 -1.766697
2008-03-31 08:39:03 51°15.557 2°49.989 12.7336 0.14677 0.828696 -1.731873
2008-03-31 08:39:08 51°15.56 2°49.962 12.7346 0.14677 0.828726 -1.731873
2008-03-31 08:39:13 51°15.562 2°49.934 12.7355 0.14677 0.828741 -1.731873
2008-03-31 08:39:18 51°15.565 2°49.907 12.7363 0.14677 0.828741 -1.731873
2008-03-31 08:39:22 51°15.567 2°49.885 12.7369 0.14677 0.828771 -1.731873
2008-03-31 08:39:27 51°15.569 2°49.858 12.738 0.14677 0.828771 -1.731873
2008-03-31 08:39:33 51°15.571 2°49.826 12.7386 0.14677 0.828801 -1.731873
2008-03-31 08:39:38 51°15.573 2°49.798 12.7394 0.14677 0.828816 -1.731873
2008-03-31 08:39:43 51°15.575 2°49.771 12.7401 0.14677 0.828816 -1.731873
2008-03-31 08:39:47 51°15.576 2°49.749 12.7413 0.14677 0.828831 -1.731873
2008-03-31 08:39:53 51°15.579 2°49.717 12.7422 0.14677 0.828831 -1.731873
2008-03-31 08:39:58 51°15.58 2°49.689 12.7426 0.14677 0.828846 -1.731873
2008-03-31 08:40:03 51°15.582 2°49.662 12.7435 0.14677 0.82886 -1.731873
2008-03-31 08:40:07 51°15.584 2°49.641 12.7446 0.14677 0.828875 -1.731873
2008-03-31 08:40:13 51°15.586 2°49.608 12.7452 0.14677 0.828875 -1.731873
2008-03-31 08:40:18 51°15.589 2°49.581 12.746 0.14677 0.828905 -1.731873
2008-03-31 08:40:23 51°15.591 2°49.554 12.7466 0.14677 0.828935 -1.731873
2008-03-31 08:40:28 51°15.592 2°49.526 12.7473 0.14677 0.82895 -1.731873
2008-03-31 08:40:33 51°15.594 2°49.499 12.7484 0.14677 0.828965 -1.731873
2008-03-31 08:40:38 51°15.596 2°49.472 12.7489 0.14677 0.82898 -1.731873
2008-03-31 08:40:43 51°15.598 2°49.445 12.75 0.14677 0.82898 -1.731873
2008-03-31 08:40:47 51°15.6 2°49.423 12.7507 0.14677 0.828995 -1.731873
2008-03-31 08:40:53 51°15.602 2°49.391 12.7517 0.14677 0.82901 -1.766697
2008-03-31 08:40:58 51°15.604 2°49.364 12.7526 0.14677 0.829025 -1.731873
2008-03-31 08:41:02 51°15.606 2°49.342 12.7533 0.14677 0.82904 -1.731873
2008-03-31 08:41:08 51°15.609 2°49.31 12.7538 0.14677 0.82904 -1.731873
2008-03-31 08:41:13 51°15.61 2°49.283 12.7546 0.14677 0.82904 -1.731873
2008-03-31 08:41:18 51°15.613 2°49.255 12.7556 0.14677 0.82907 -1.731873
2008-03-31 08:41:23 51°15.615 2°49.228 12.7564 0.14677 0.829085 -1.731873
2008-03-31 08:41:27 51°15.616 2°49.207 12.7576 0.14677 0.8291 -1.731873
2008-03-31 08:41:33 51°15.619 2°49.174 12.7582 0.14677 0.829115 -1.731873
2008-03-31 08:41:38 51°15.621 2°49.147 12.7593 0.14677 0.82913 -1.731873
2008-03-31 08:41:43 51°15.623 2°49.12 12.7603 0.14677 0.82913 -1.731873
2008-03-31 08:41:47 51°15.625 2°49.099 12.7606 0.14677 0.82916 -1.697049
2008-03-31 08:41:53 51°15.628 2°49.067 12.7613 0.14677 0.829145 -1.731873
2008-03-31 08:41:58 51°15.633 2°49.041 12.7623 0.14677 0.829145 -1.766697
2008-03-31 08:42:03 51°15.638 2°49.015 12.7629 0.14677 0.829175 -1.731873
2008-03-31 08:42:07 51°15.643 2°48.994 12.7637 0.14677 0.82919 -1.731873
2008-03-31 08:42:13 51°15.651 2°48.964 12.7645 0.14677 0.82919 -1.731873
2008-03-31 08:42:18 51°15.658 2°48.939 12.7649 0.14677 0.82922 -1.731873
2008-03-31 08:42:23 51°15.666 2°48.914 12.7663 0.146667 0.828626 -1.766697
2008-03-31 08:42:27 51°15.674 2°48.896 12.7668 0.146667 0.828656 -1.731873
2008-03-31 08:42:33 51°15.685 2°48.867 12.7675 0.146667 0.828671 -1.731873
2008-03-31 08:42:38 51°15.695 2°48.845 12.7687 0.146667 0.828716 -1.731873
2008-03-31 08:42:43 51°15.705 2°48.821 12.7693 0.146667 0.828716 -1.731873
2008-03-31 08:42:47 51°15.713 2°48.803 12.7707 0.146667 0.828716 -1.731873
2008-03-31 08:42:53 51°15.725 2°48.776 12.7711 0.146667 0.828746 -1.731873
2008-03-31 08:42:58 51°15.735 2°48.753 12.772 0.146667 0.828746 -1.731873
2008-03-31 08:43:03 51°15.745 2°48.729 12.7731 0.146667 0.828761 -1.731873
2008-03-31 08:43:08 51°15.754 2°48.706 12.7741 0.146667 0.828776 -1.731873
2008-03-31 08:43:13 51°15.764 2°48.683 12.7749 0.146667 0.828776 -1.731873
2008-03-31 08:43:18 51°15.774 2°48.66 12.7757 0.146667 0.828776 -1.731873
2008-03-31 08:43:23 51°15.784 2°48.636 12.7762 0.146667 0.828776 -1.731873
2008-03-31 08:43:28 51°15.794 2°48.613 12.7776 0.146667 0.828791 -1.731873
2008-03-31 08:43:33 51°15.804 2°48.59 12.7785 0.146667 0.828821 -1.731873
2008-03-31 08:43:38 51°15.813 2°48.566 12.7793 0.146667 0.828836 -1.731873
2008-03-31 08:43:43 51°15.823 2°48.543 12.7803 0.146667 0.828836 -1.731873
2008-03-31 08:43:47 51°15.831 2°48.524 12.7809 0.146667 0.828866 -1.731873
2008-03-31 08:43:53 51°15.842 2°48.496 12.7821 0.146667 0.828881 -1.766697
2008-03-31 08:43:58 51°15.851 2°48.472 12.7825 0.146667 0.828911 -1.731873
2008-03-31 08:44:03 51°15.86 2°48.448 12.784 0.146667 0.828926 -1.731873
2008-03-31 08:44:07 51°15.867 2°48.429 12.7841 0.146667 0.828941 -1.731873
2008-03-31 08:44:13 51°15.876 2°48.399 12.7856 0.146667 0.828986 -1.731873
2008-03-31 08:44:18 51°15.884 2°48.374 12.7861 0.146667 0.828986 -1.731873
2008-03-31 08:44:23 51°15.891 2°48.349 12.7872 0.146667 0.828971 -1.731873
2008-03-31 08:44:27 51°15.898 2°48.329 12.7877 0.146667 0.828986 -1.731873
2008-03-31 08:44:33 51°15.906 2°48.298 12.7887 0.146667 0.828986 -1.766697
2008-03-31 08:44:38 51°15.913 2°48.273 12.7903 0.146667 0.829016 -1.731873
2008-03-31 08:44:43 51°15.919 2°48.247 12.7903 0.146667 0.829016 -1.731873
2008-03-31 08:44:47 51°15.924 2°48.227 12.7921 0.146667 0.829016 -1.731873
2008-03-31 08:44:53 51°15.931 2°48.196 12.7924 0.146667 0.829061 -1.731873
2008-03-31 08:44:58 51°15.935 2°48.169 12.793 0.146667 0.829061 -1.731873
2008-03-31 08:45:03 51°15.94 2°48.143 12.7941 0.146667 0.829091 -1.731873
2008-03-31 08:45:08 51°15.943 2°48.116 12.7951 0.146667 0.829091 -1.731873
2008-03-31 08:45:13 51°15.948 2°48.09 12.7959 0.146667 0.829091 -1.731873
2008-03-31 08:45:18 51°15.951 2°48.063 12.7966 0.146667 0.829106 -1.731873
2008-03-31 08:45:23 51°15.955 2°48.036 12.7975 0.146667 0.829121 -1.731873
2008-03-31 08:45:28 51°15.959 2°48.009 12.798 0.146667 0.829136 -1.731873
2008-03-31 08:45:33 51°15.962 2°47.982 12.7994 0.146667 0.829151 -1.766697
2008-03-31 08:45:38 51°15.966 2°47.955 12.7998 0.146667 0.829151 -1.731873
2008-03-31 08:45:43 51°15.969 2°47.929 12.801 0.146667 0.829151 -1.731873
2008-03-31 08:45:48 51°15.973 2°47.902 12.8019 0.146667 0.829181 -1.731873
2008-03-31 08:45:53 51°15.977 2°47.875 12.8022 0.146667 0.829196 -1.731873
2008-03-31 08:45:58 51°15.981 2°47.848 12.8032 0.146667 0.829211 -1.731873
2008-03-31 08:46:02 51°15.984 2°47.827 12.8043 0.146667 0.829226 -1.766697
2008-03-31 08:46:07 51°15.988 2°47.8 12.8052 0.146564 0.828647 -1.731873
2008-03-31 08:46:13 51°15.993 2°47.768 12.8057 0.146564 0.828662 -1.731873
2008-03-31 08:46:18 51°15.997 2°47.741 12.8072 0.146564 0.828662 -1.731873
2008-03-31 08:46:23 51°16.002 2°47.714 12.8077 0.146564 0.828707 -1.697049
2008-03-31 08:46:27 51°16.004 2°47.693 12.8091 0.146564 0.828707 -1.731873
2008-03-31 08:46:33 51°16.008 2°47.661 12.8095 0.146564 0.828737 -1.731873
2008-03-31 08:46:38 51°16.011 2°47.634 12.8107 0.146564 0.828737 -1.731873
2008-03-31 08:46:43 51°16.014 2°47.606 12.8112 0.146564 0.828737 -1.731873
2008-03-31 08:46:47 51°16.016 2°47.585 12.8126 0.146564 0.828752 -1.731873
2008-03-31 08:46:53 51°16.02 2°47.552 12.8129 0.146564 0.828767 -1.731873
2008-03-31 08:46:58 51°16.022 2°47.525 12.8142 0.146564 0.828767 -1.731873
2008-03-31 08:47:03 51°16.025 2°47.498 12.8152 0.146564 0.828782 -1.731873
2008-03-31 08:47:07 51°16.027 2°47.476 12.816 0.146564 0.828797 -1.731873
2008-03-31 08:47:13 51°16.03 2°47.444 12.8169 0.146564 0.828797 -1.731873
2008-03-31 08:47:18 51°16.033 2°47.417 12.8177 0.146564 0.828797 -1.731873
2008-03-31 08:47:23 51°16.036 2°47.39 12.8189 0.146564 0.828827 -1.731873
2008-03-31 08:47:27 51°16.039 2°47.368 12.8196 0.146564 0.828842 -1.731873
2008-03-31 08:47:33 51°16.043 2°47.335 12.8205 0.146564 0.828872 -1.731873
2008-03-31 08:47:38 51°16.047 2°47.308 12.8214 0.146564 0.828887 -1.731873
2008-03-31 08:47:43 51°16.05 2°47.282 12.8225 0.146564 0.828902 -1.731873
2008-03-31 08:47:48 51°16.054 2°47.255 12.8232 0.146564 0.828902 -1.731873
2008-03-31 08:47:53 51°16.057 2°47.228 12.8246 0.146564 0.828932 -1.731873
2008-03-31 08:47:58 51°16.06 2°47.201 12.8252 0.146564 0.828947 -1.731873
2008-03-31 08:48:03 51°16.064 2°47.174 12.8262 0.146564 0.828947 -1.731873
2008-03-31 08:48:08 51°16.067 2°47.147 12.8269 0.146564 0.828962 -1.731873
2008-03-31 08:48:13 51°16.07 2°47.12 12.828 0.146564 0.828962 -1.731873
2008-03-31 08:48:18 51°16.074 2°47.093 12.829 0.146564 0.828977 -1.766697
2008-03-31 08:48:23 51°16.077 2°47.066 12.8299 0.146564 0.828992 -1.731873
2008-03-31 08:48:27 51°16.079 2°47.044 12.8311 0.146564 0.829007 -1.731873
2008-03-31 08:48:33 51°16.083 2°47.012 12.8317 0.146564 0.829022 -1.731873
2008-03-31 08:48:38 51°16.086 2°46.985 12.8328 0.146564 0.829037 -1.731873
2008-03-31 08:48:43 51°16.088 2°46.958 12.8338 0.146564 0.829037 -1.731873
2008-03-31 08:48:47 51°16.091 2°46.936 12.8348 0.146564 0.829052 -1.731873
2008-03-31 08:48:53 51°16.094 2°46.904 12.8357 0.146564 0.829067 -1.731873
2008-03-31 08:48:58 51°16.097 2°46.877 12.8365 0.146564 0.829082 -1.731873
2008-03-31 08:49:03 51°16.1 2°46.851 12.8377 0.146564 0.829097 -1.731873
2008-03-31 08:49:07 51°16.103 2°46.829 12.8383 0.146564 0.829097 -1.766697
2008-03-31 08:49:13 51°16.107 2°46.797 12.8395 0.146564 0.829097 -1.766697
2008-03-31 08:49:18 51°16.11 2°46.77 12.8406 0.146564 0.829127 -1.731873
2008-03-31 08:49:23 51°16.113 2°46.743 12.8412 0.146564 0.829142 -1.731873
2008-03-31 08:49:28 51°16.116 2°46.716 12.8423 0.146564 0.829157 -1.731873
2008-03-31 08:49:33 51°16.119 2°46.689 12.8432 0.146564 0.829172 -1.731873
2008-03-31 08:49:38 51°16.122 2°46.662 12.8441 0.146461 0.828578 -1.731873
2008-03-31 08:49:43 51°16.125 2°46.635 12.845 0.146564 0.829202 -1.766697
2008-03-31 08:49:48 51°16.128 2°46.609 12.8462 0.146564 0.829202 -1.766697
2008-03-31 08:49:53 51°16.131 2°46.582 12.8474 0.146564 0.829217 -1.766697
2008-03-31 08:49:58 51°16.134 2°46.555 12.8481 0.146461 0.828623 -1.731873
2008-03-31 08:50:03 51°16.137 2°46.528 12.8492 0.146461 0.828638 -1.731873
2008-03-31 08:50:07 51°16.139 2°46.506 12.8501 0.146461 0.828653 -1.731873
2008-03-31 08:50:13 51°16.143 2°46.474 12.8512 0.146461 0.828668 -1.731873
2008-03-31 08:50:18 51°16.146 2°46.447 12.8526 0.146461 0.828668 -1.731873
2008-03-31 08:50:23 51°16.149 2°46.42 12.853 0.146461 0.828683 -1.731873
2008-03-31 08:50:28 51°16.152 2°46.393 12.8542 0.146461 0.828698 -1.731873
2008-03-31 08:50:33 51°16.155 2°46.366 12.8549 0.146461 0.828713 -1.731873
2008-03-31 08:50:38 51°16.158 2°46.339 12.8558 0.146461 0.828728 -1.731873
2008-03-31 08:50:43 51°16.162 2°46.313 12.857 0.146461 0.828728 -1.731873
2008-03-31 08:50:47 51°16.164 2°46.291 12.8577 0.146461 0.828743 -1.731873
2008-03-31 08:50:53 51°16.169 2°46.259 12.8587 0.146461 0.828743 -1.766697
2008-03-31 08:50:58 51°16.172 2°46.233 12.8596 0.146461 0.828773 -1.731873
2008-03-31 08:51:03 51°16.176 2°46.206 12.8606 0.146461 0.828803 -1.731873
2008-03-31 08:51:07 51°16.179 2°46.184 12.8618 0.146461 0.828803 -1.731873
2008-03-31 08:51:13 51°16.184 2°46.152 12.8627 0.146461 0.828833 -1.731873
2008-03-31 08:51:18 51°16.187 2°46.125 12.8638 0.146461 0.828833 -1.731873
2008-03-31 08:51:23 51°16.191 2°46.098 12.8645 0.146461 0.828863 -1.731873
2008-03-31 08:51:28 51°16.194 2°46.071 12.8657 0.146461 0.828878 -1.731873
2008-03-31 08:51:33 51°16.197 2°46.044 12.8667 0.146461 0.828893 -1.731873
2008-03-31 08:51:38 51°16.201 2°46.017 12.8672 0.146461 0.828893 -1.731873
2008-03-31 08:51:43 51°16.204 2°45.99 12.8686 0.146461 0.828893 -1.731873
2008-03-31 08:51:47 51°16.208 2°45.969 12.8691 0.146461 0.828893 -1.731873
2008-03-31 08:51:53 51°16.213 2°45.937 12.8704 0.146461 0.828908 -1.731873
2008-03-31 08:51:58 51°16.218 2°45.911 12.8714 0.146461 0.828923 -1.731873
2008-03-31 08:52:02 51°16.222 2°45.89 12.8722 0.146461 0.828938 -1.731873
2008-03-31 08:52:08 51°16.229 2°45.858 12.8736 0.146461 0.828953 -1.731873
2008-03-31 08:52:13 51°16.234 2°45.831 12.8741 0.146461 0.828953 -1.731873
2008-03-31 08:52:18 51°16.24 2°45.805 12.8754 0.146461 0.828968 -1.731873
2008-03-31 08:52:23 51°16.246 2°45.779 12.876 0.146461 0.829013 -1.731873
2008-03-31 08:52:28 51°16.251 2°45.753 12.8771 0.146461 0.829028 -1.731873
2008-03-31 08:52:33 51°16.256 2°45.726 12.8781 0.146461 0.829058 -1.731873
2008-03-31 08:52:38 51°16.261 2°45.7 12.8793 0.146461 0.829073 -1.731873
2008-03-31 08:52:43 51°16.266 2°45.673 12.8799 0.146461 0.829073 -1.731873
2008-03-31 08:52:47 51°16.271 2°45.652 12.8813 0.146461 0.829058 -1.731873
2008-03-31 08:52:53 51°16.278 2°45.62 12.8816 0.146461 0.829073 -1.731873
2008-03-31 08:52:58 51°16.284 2°45.594 12.8832 0.146461 0.829073 -1.766697
2008-03-31 08:53:03 51°16.291 2°45.569 12.8837 0.146461 0.829088 -1.731873
2008-03-31 08:53:07 51°16.296 2°45.548 12.8848 0.146461 0.829103 -1.731873
2008-03-31 08:53:13 51°16.304 2°45.517 12.8858 0.146461 0.829133 -1.731873
2008-03-31 08:53:18 51°16.311 2°45.491 12.8873 0.146461 0.829133 -1.731873
2008-03-31 08:53:23 51°16.318 2°45.465 12.8879 0.146461 0.829148 -1.731873
2008-03-31 08:53:27 51°16.323 2°45.444 12.8885 0.146461 0.829163 -1.731873
2008-03-31 08:53:33 51°16.331 2°45.413 12.89 0.146358 0.828568 -1.731873
2008-03-31 08:53:38 51°16.338 2°45.388 12.8912 0.146358 0.828598 -1.731873
2008-03-31 08:53:43 51°16.345 2°45.362 12.8918 0.146358 0.828598 -1.731873
2008-03-31 08:53:47 51°16.35 2°45.341 12.893 0.146358 0.828598 -1.731873
2008-03-31 08:53:53 51°16.359 2°45.31 12.8942 0.146358 0.828613 -1.731873
2008-03-31 08:53:58 51°16.367 2°45.285 12.8954 0.146358 0.828613 -1.731873
2008-03-31 08:54:03 51°16.375 2°45.26 12.8965 0.146358 0.828643 -1.731873
2008-03-31 08:54:08 51°16.382 2°45.234 12.8972 0.146358 0.828643 -1.731873
2008-03-31 08:54:13 51°16.39 2°45.209 12.8979 0.146358 0.828643 -1.731873
2008-03-31 08:54:18 51°16.398 2°45.184 12.8993 0.146358 0.828643 -1.731873
2008-03-31 08:54:23 51°16.407 2°45.159 12.9001 0.146358 0.828673 -1.731873
2008-03-31 08:54:28 51°16.415 2°45.134 12.901 0.146358 0.828673 -1.731873
2008-03-31 08:54:33 51°16.424 2°45.11 12.9019 0.146358 0.828703 -1.731873
2008-03-31 08:54:38 51°16.433 2°45.086 12.9034 0.146358 0.828734 -1.731873
2008-03-31 08:54:43 51°16.442 2°45.061 12.9041 0.146358 0.828734 -1.731873
2008-03-31 08:54:48 51°16.451 2°45.037 12.9052 0.146358 0.828749 -1.731873
2008-03-31 08:54:53 51°16.46 2°45.012 12.9066 0.146358 0.828764 -1.731873
2008-03-31 08:54:58 51°16.469 2°44.988 12.9076 0.146358 0.828779 -1.731873
2008-03-31 08:55:02 51°16.476 2°44.968 12.9084 0.146358 0.828794 -1.731873
2008-03-31 08:55:08 51°16.486 2°44.939 12.9096 0.146358 0.828809 -1.731873
2008-03-31 08:55:13 51°16.494 2°44.914 12.9109 0.146358 0.828809 -1.766697
2008-03-31 08:55:18 51°16.503 2°44.889 12.9118 0.146358 0.828809 -1.766697
2008-03-31 08:55:23 51°16.511 2°44.865 12.9128 0.146358 0.828824 -1.731873
2008-03-31 08:55:27 51°16.518 2°44.845 12.9136 0.146358 0.828824 -1.731873
2008-03-31 08:55:33 51°16.529 2°44.816 12.9148 0.146358 0.828839 -1.731873
2008-03-31 08:55:38 51°16.538 2°44.792 12.916 0.146358 0.828854 -1.731873
2008-03-31 08:55:43 51°16.547 2°44.768 12.9168 0.146358 0.828884 -1.731873
2008-03-31 08:55:47 51°16.554 2°44.748 12.9179 0.146358 0.828884 -1.731873
2008-03-31 08:55:53 51°16.566 2°44.72 12.9188 0.146358 0.828899 -1.731873
2008-03-31 08:55:58 51°16.575 2°44.696 12.9199 0.146358 0.828914 -1.731873
2008-03-31 08:56:03 51°16.584 2°44.672 12.9211 0.146358 0.828944 -1.731873
2008-03-31 08:56:07 51°16.591 2°44.652 12.9223 0.146358 0.828959 -1.731873
2008-03-31 08:56:13 51°16.602 2°44.623 12.9234 0.146358 0.828959 -1.731873
2008-03-31 08:56:18 51°16.612 2°44.599 12.9243 0.146358 0.828974 -1.731873
2008-03-31 08:56:23 51°16.621 2°44.575 12.9256 0.146358 0.828974 -1.731873
2008-03-31 08:56:27 51°16.629 2°44.556 12.9266 0.146358 0.828989 -1.731873
2008-03-31 08:56:33 51°16.641 2°44.528 12.9277 0.146358 0.828989 -1.731873
2008-03-31 08:56:38 51°16.65 2°44.505 12.9284 0.146358 0.829019 -1.731873
2008-03-31 08:56:43 51°16.66 2°44.481 12.9297 0.146358 0.829019 -1.731873
2008-03-31 08:56:48 51°16.67 2°44.457 12.9308 0.146358 0.829034 -1.731873
2008-03-31 08:56:53 51°16.68 2°44.433 12.9318 0.146358 0.829049 -1.731873
2008-03-31 08:56:58 51°16.689 2°44.41 12.9326 0.146358 0.829064 -1.731873
2008-03-31 08:57:03 51°16.699 2°44.386 12.934 0.146358 0.829079 -1.731873
2008-03-31 08:57:08 51°16.709 2°44.362 12.9348 0.146358 0.829079 -1.731873
2008-03-31 08:57:13 51°16.719 2°44.339 12.936 0.146358 0.829109 -1.731873
2008-03-31 08:57:18 51°16.729 2°44.316 12.9372 0.146358 0.829109 -1.731873
2008-03-31 08:57:23 51°16.739 2°44.292 12.9381 0.146358 0.829109 -1.731873
2008-03-31 08:57:28 51°16.749 2°44.269 12.9394 0.146255 0.828529 -1.731873
2008-03-31 08:57:33 51°16.76 2°44.246 12.9402 0.146255 0.828544 -1.731873
2008-03-31 08:57:38 51°16.77 2°44.223 12.9411 0.146255 0.828559 -1.731873
2008-03-31 08:57:43 51°16.78 2°44.199 12.9425 0.146255 0.828559 -1.731873
2008-03-31 08:57:47 51°16.788 2°44.181 12.9438 0.146255 0.828574 -1.731873
2008-03-31 08:57:53 51°16.8 2°44.153 12.9444 0.146255 0.828589 -1.731873
2008-03-31 08:57:58 51°16.81 2°44.129 12.9455 0.146255 0.828619 -1.731873
2008-03-31 08:58:03 51°16.819 2°44.105 12.9466 0.146255 0.828634 -1.731873
2008-03-31 08:58:07 51°16.827 2°44.086 12.9479 0.146255 0.828649 -1.731873
2008-03-31 08:58:13 51°16.839 2°44.058 12.9488 0.146255 0.828649 -1.731873
2008-03-31 08:58:18 51°16.849 2°44.034 12.9501 0.146255 0.828649 -1.766697
2008-03-31 08:58:23 51°16.858 2°44.01 12.951 0.146255 0.828664 -1.731873
2008-03-31 08:58:28 51°16.868 2°43.987 12.952 0.146255 0.828679 -1.731873
2008-03-31 08:58:33 51°16.878 2°43.963 12.9531 0.146255 0.828695 -1.731873
2008-03-31 08:58:38 51°16.887 2°43.939 12.9543 0.146255 0.828695 -1.731873
2008-03-31 08:58:43 51°16.897 2°43.916 12.9552 0.146255 0.828725 -1.731873
2008-03-31 08:58:48 51°16.906 2°43.892 12.9561 0.146255 0.828725 -1.731873
2008-03-31 08:58:53 51°16.916 2°43.868 12.9574 0.146255 0.82874 -1.731873
2008-03-31 08:58:58 51°16.926 2°43.844 12.9585 0.146255 0.828755 -1.731873
2008-03-31 08:59:03 51°16.935 2°43.821 12.9594 0.146255 0.82877 -1.731873
2008-03-31 08:59:07 51°16.943 2°43.802 12.9602 0.146255 0.828785 -1.731873
2008-03-31 08:59:13 51°16.954 2°43.773 12.9617 0.146255 0.828785 -1.731873
2008-03-31 08:59:18 51°16.964 2°43.749 12.9625 0.146255 0.8288 -1.731873
2008-03-31 08:59:23 51°16.973 2°43.725 12.9634 0.146255 0.828815 -1.731873
2008-03-31 08:59:28 51°16.983 2°43.702 12.9645 0.146255 0.82883 -1.731873
2008-03-31 08:59:33 51°16.993 2°43.678 12.9653 0.146255 0.82883 -1.731873
2008-03-31 08:59:38 51°17.003 2°43.655 12.9667 0.146255 0.82886 -1.731873
2008-03-31 08:59:43 51°17.013 2°43.632 12.9675 0.146255 0.82886 -1.731873
2008-03-31 08:59:47 51°17.021 2°43.613 12.9689 0.146255 0.828875 -1.731873
2008-03-31 08:59:53 51°17.033 2°43.585 12.9698 0.146255 0.82889 -1.731873
2008-03-31 08:59:58 51°17.043 2°43.562 12.9712 0.146255 0.82892 -1.731873
2008-03-31 09:00:03 51°17.053 2°43.539 12.972 0.146255 0.828935 -1.731873
2008-03-31 09:00:07 51°17.061 2°43.52 12.9727 0.146255 0.82895 -1.731873
2008-03-31 09:00:13 51°17.072 2°43.491 12.974 0.146255 0.82895 -1.731873
2008-03-31 09:00:18 51°17.082 2°43.467 12.9751 0.146255 0.828965 -1.731873
2008-03-31 09:00:23 51°17.091 2°43.443 12.9764 0.146255 0.82898 -1.731873
2008-03-31 09:00:28 51°17.101 2°43.42 12.9774 0.146255 0.82898 -1.731873
2008-03-31 09:00:33 51°17.11 2°43.396 12.9786 0.146255 0.828995 -1.731873
2008-03-31 09:00:38 51°17.12 2°43.372 12.9792 0.146255 0.82901 -1.766697
2008-03-31 09:00:43 51°17.13 2°43.349 12.9806 0.146255 0.829026 -1.731873
2008-03-31 09:00:47 51°17.138 2°43.33 12.9818 0.146255 0.829026 -1.731873
2008-03-31 09:00:53 51°17.149 2°43.302 12.9825 0.146255 0.829026 -1.731873
2008-03-31 09:00:58 51°17.16 2°43.279 12.9838 0.146255 0.829041 -1.731873
2008-03-31 09:01:03 51°17.17 2°43.256 12.9852 0.146255 0.829071 -1.766697
2008-03-31 09:01:08 51°17.18 2°43.233 12.9863 0.146255 0.829101 -1.731873
2008-03-31 09:01:13 51°17.19 2°43.21 12.9871 0.146255 0.829101 -1.731873
2008-03-31 09:01:18 51°17.2 2°43.187 12.988 0.146152 0.828505 -1.766697
2008-03-31 09:01:23 51°17.21 2°43.164 12.989 0.146255 0.829131 -1.731873
2008-03-31 09:01:28 51°17.22 2°43.141 12.9908 0.146152 0.82852 -1.731873
2008-03-31 09:01:33 51°17.23 2°43.118 12.9913 0.146152 0.82855 -1.731873
2008-03-31 09:01:38 51°17.24 2°43.094 12.9927 0.146152 0.828565 -1.766697
2008-03-31 09:01:43 51°17.25 2°43.071 12.9936 0.146152 0.828565 -1.766697
2008-03-31 09:01:47 51°17.258 2°43.052 12.9948 0.146152 0.82858 -1.731873
2008-03-31 09:01:53 51°17.27 2°43.025 12.996 0.146152 0.82858 -1.731873
2008-03-31 09:01:58 51°17.279 2°43.001 12.9968 0.146152 0.828595 -1.731873
2008-03-31 09:02:03 51°17.289 2°42.978 12.9987 0.146152 0.828625 -1.731873
2008-03-31 09:02:07 51°17.296 2°42.958 12.9993 0.146152 0.828625 -1.731873
2008-03-31 09:02:13 51°17.307 2°42.93 13.0005 0.146152 0.828656 -1.731873
2008-03-31 09:02:18 51°17.317 2°42.906 13.0014 0.146152 0.828656 -1.731873
2008-03-31 09:02:23 51°17.326 2°42.883 13.003 0.146152 0.828656 -1.731873
2008-03-31 09:02:27 51°17.334 2°42.864 13.0039 0.146152 0.828671 -1.731873
2008-03-31 09:02:33 51°17.345 2°42.836 13.0048 0.146152 0.828686 -1.731873
2008-03-31 09:02:38 51°17.354 2°42.812 13.0062 0.146152 0.828701 -1.731873
2008-03-31 09:02:43 51°17.364 2°42.789 13.0072 0.146152 0.828701 -1.731873
2008-03-31 09:02:47 51°17.371 2°42.77 13.0082 0.146152 0.828716 -1.731873
2008-03-31 09:02:53 51°17.383 2°42.741 13.009 0.146152 0.828731 -1.731873
2008-03-31 09:02:58 51°17.393 2°42.718 13.0103 0.146152 0.828746 -1.731873
2008-03-31 09:03:03 51°17.403 2°42.694 13.0116 0.146152 0.828761 -1.731873
2008-03-31 09:03:08 51°17.413 2°42.671 13.0128 0.146152 0.828776 -1.731873
2008-03-31 09:03:13 51°17.422 2°42.647 13.0136 0.146152 0.828776 -1.731873
2008-03-31 09:03:18 51°17.433 2°42.624 13.0146 0.146152 0.828791 -1.731873
2008-03-31 09:03:23 51°17.443 2°42.601 13.0157 0.146152 0.828791 -1.731873
2008-03-31 09:03:28 51°17.453 2°42.578 13.0171 0.146152 0.828821 -1.766697
2008-03-31 09:03:33 51°17.464 2°42.554 13.0179 0.146152 0.828821 -1.731873
2008-03-31 09:03:38 51°17.474 2°42.531 13.0196 0.146152 0.828851 -1.731873
2008-03-31 09:03:43 51°17.484 2°42.508 13.02 0.146152 0.828866 -1.731873
2008-03-31 09:03:48 51°17.494 2°42.484 13.0213 0.146152 0.828866 -1.731873
2008-03-31 09:03:53 51°17.504 2°42.461 13.0225 0.146152 0.828881 -1.731873
2008-03-31 09:03:58 51°17.514 2°42.438 13.0234 0.146152 0.828896 -1.731873
2008-03-31 09:04:02 51°17.522 2°42.419 13.0246 0.146152 0.828896 -1.731873
2008-03-31 09:04:08 51°17.534 2°42.391 13.0258 0.146152 0.828912 -1.731873
2008-03-31 09:04:13 51°17.544 2°42.368 13.0267 0.146152 0.828927 -1.731873
2008-03-31 09:04:18 51°17.554 2°42.344 13.0277 0.146152 0.828927 -1.731873
2008-03-31 09:04:23 51°17.565 2°42.321 13.029 0.146152 0.828942 -1.766697
2008-03-31 09:04:27 51°17.573 2°42.303 13.0303 0.146152 0.828957 -1.731873
2008-03-31 09:04:33 51°17.585 2°42.275 13.0312 0.146152 0.828972 -1.731873
2008-03-31 09:04:38 51°17.595 2°42.252 13.0325 0.146152 0.828987 -1.731873
2008-03-31 09:04:43 51°17.606 2°42.229 13.0335 0.146152 0.828987 -1.731873
2008-03-31 09:04:47 51°17.614 2°42.21 13.0342 0.146152 0.829017 -1.731873
2008-03-31 09:04:53 51°17.626 2°42.183 13.0357 0.146152 0.829032 -1.731873
2008-03-31 09:04:58 51°17.636 2°42.159 13.0367 0.146152 0.829047 -1.731873
2008-03-31 09:05:03 51°17.646 2°42.136 13.0377 0.146152 0.829062 -1.731873
2008-03-31 09:05:07 51°17.654 2°42.117 13.0391 0.146049 0.828451 -1.731873
2008-03-31 09:05:13 51°17.667 2°42.09 13.0398 0.146049 0.828451 -1.731873
2008-03-31 09:05:18 51°17.677 2°42.066 13.0415 0.146049 0.828481 -1.731873
2008-03-31 09:05:23 51°17.687 2°42.043 13.0421 0.146049 0.828496 -1.731873
2008-03-31 09:05:27 51°17.694 2°42.024 13.0433 0.146049 0.828496 -1.731873
2008-03-31 09:05:33 51°17.706 2°41.996 13.0446 0.146049 0.828511 -1.731873
2008-03-31 09:05:38 51°17.716 2°41.972 13.0458 0.146049 0.828526 -1.731873
2008-03-31 09:05:43 51°17.726 2°41.949 13.0464 0.146049 0.828526 -1.731873
2008-03-31 09:05:48 51°17.735 2°41.925 13.0482 0.146049 0.828526 -1.731873
2008-03-31 09:05:53 51°17.745 2°41.902 13.049 0.146049 0.828556 -1.731873
2008-03-31 09:05:58 51°17.755 2°41.878 13.05 0.146049 0.828571 -1.731873
2008-03-31 09:06:03 51°17.765 2°41.855 13.0511 0.146049 0.828587 -1.731873
2008-03-31 09:06:08 51°17.775 2°41.832 13.0521 0.146049 0.828602 -1.731873
2008-03-31 09:06:13 51°17.784 2°41.808 13.0536 0.146049 0.828617 -1.731873
2008-03-31 09:06:18 51°17.794 2°41.784 13.0542 0.146049 0.828617 -1.731873
2008-03-31 09:06:23 51°17.804 2°41.761 13.0556 0.146049 0.828632 -1.731873
2008-03-31 09:06:28 51°17.814 2°41.738 13.0569 0.146049 0.828647 -1.731873
2008-03-31 09:06:33 51°17.824 2°41.714 13.058 0.146049 0.828677 -1.731873
2008-03-31 09:06:38 51°17.833 2°41.69 13.059 0.146049 0.828662 -1.731873
2008-03-31 09:06:43 51°17.843 2°41.667 13.0603 0.146049 0.828662 -1.731873
2008-03-31 09:06:47 51°17.851 2°41.648 13.0611 0.146049 0.828692 -1.731873
2008-03-31 09:06:53 51°17.863 2°41.62 13.0626 0.146049 0.828692 -1.731873
2008-03-31 09:06:58 51°17.873 2°41.596 13.0632 0.146049 0.828707 -1.731873
2008-03-31 09:07:03 51°17.884 2°41.573 13.0641 0.146049 0.828722 -1.731873
2008-03-31 09:07:07 51°17.892 2°41.555 13.0653 0.146049 0.828737 -1.731873
2008-03-31 09:07:13 51°17.904 2°41.527 13.0666 0.146049 0.828737 -1.731873
2008-03-31 09:07:18 51°17.914 2°41.504 13.0674 0.146049 0.828752 -1.731873
2008-03-31 09:07:23 51°17.924 2°41.48 13.0688 0.146049 0.828767 -1.731873
2008-03-31 09:07:28 51°17.934 2°41.457 13.0699 0.146049 0.828797 -1.731873
2008-03-31 09:07:33 51°17.944 2°41.433 13.0711 0.146049 0.828813 -1.731873
2008-03-31 09:07:38 51°17.954 2°41.409 13.072 0.146049 0.828813 -1.731873
2008-03-31 09:07:43 51°17.963 2°41.386 13.0731 0.146049 0.828828 -1.731873
2008-03-31 09:07:48 51°17.973 2°41.362 13.0741 0.146049 0.828828 -1.731873
2008-03-31 09:07:53 51°17.983 2°41.339 13.0756 0.146049 0.828828 -1.731873
2008-03-31 09:07:58 51°17.993 2°41.316 13.0765 0.146049 0.828843 -1.731873
2008-03-31 09:08:03 51°18.003 2°41.293 13.0775 0.146049 0.828858 -1.731873
2008-03-31 09:08:07 51°18.011 2°41.274 13.0787 0.146049 0.828873 -1.731873
2008-03-31 09:08:13 51°18.023 2°41.246 13.0798 0.146049 0.828888 -1.731873
2008-03-31 09:08:18 51°18.032 2°41.222 13.081 0.146049 0.828888 -1.731873
2008-03-31 09:08:23 51°18.042 2°41.199 13.082 0.146049 0.828903 -1.731873
2008-03-31 09:08:28 51°18.052 2°41.175 13.0831 0.146049 0.828918 -1.731873
2008-03-31 09:08:33 51°18.062 2°41.152 13.0841 0.146049 0.828933 -1.731873
2008-03-31 09:08:38 51°18.072 2°41.129 13.0854 0.146049 0.828948 -1.731873
2008-03-31 09:08:43 51°18.082 2°41.106 13.0867 0.146049 0.828948 -1.731873
2008-03-31 09:08:48 51°18.092 2°41.082 13.0875 0.146049 0.828963 -1.731873
2008-03-31 09:08:53 51°18.102 2°41.059 13.0887 0.146049 0.828963 -1.731873
2008-03-31 09:08:58 51°18.112 2°41.036 13.0896 0.146049 0.828978 -1.731873
2008-03-31 09:09:03 51°18.122 2°41.013 13.0909 0.146049 0.828993 -1.731873
2008-03-31 09:09:07 51°18.13 2°40.994 13.0922 0.146049 0.828993 -1.731873
2008-03-31 09:09:13 51°18.142 2°40.966 13.0934 0.146049 0.829009 -1.731873
2008-03-31 09:09:18 51°18.152 2°40.943 13.0946 0.146049 0.829009 -1.731873
2008-03-31 09:09:23 51°18.162 2°40.92 13.0956 0.146049 0.829024 -1.731873
2008-03-31 09:09:28 51°18.171 2°40.897 13.0969 0.145946 0.828427 -1.731873
2008-03-31 09:09:33 51°18.181 2°40.873 13.0976 0.145946 0.828442 -1.731873
2008-03-31 09:09:38 51°18.191 2°40.85 13.0988 0.145946 0.828457 -1.731873
2008-03-31 09:09:43 51°18.2 2°40.827 13.1002 0.145946 0.828472 -1.731873
2008-03-31 09:09:47 51°18.208 2°40.808 13.1011 0.145946 0.828472 -1.731873
2008-03-31 09:09:53 51°18.22 2°40.78 13.1022 0.145946 0.828487 -1.731873
2008-03-31 09:09:58 51°18.23 2°40.757 13.1033 0.145946 0.828487 -1.731873
2008-03-31 09:10:03 51°18.24 2°40.734 13.1044 0.145946 0.828502 -1.731873
2008-03-31 09:10:08 51°18.25 2°40.711 13.1053 0.145946 0.828518 -1.731873
2008-03-31 09:10:13 51°18.26 2°40.688 13.1071 0.145946 0.828518 -1.731873
2008-03-31 09:10:18 51°18.27 2°40.666 13.108 0.145946 0.828533 -1.731873
2008-03-31 09:10:23 51°18.28 2°40.643 13.1093 0.145946 0.828533 -1.731873
2008-03-31 09:10:28 51°18.29 2°40.62 13.1101 0.145946 0.828563 -1.731873
2008-03-31 09:10:33 51°18.301 2°40.598 13.1114 0.145946 0.828578 -1.731873
2008-03-31 09:10:38 51°18.311 2°40.575 13.1125 0.145946 0.828593 -1.731873
2008-03-31 09:10:43 51°18.321 2°40.552 13.114 0.145946 0.828593 -1.731873
2008-03-31 09:10:48 51°18.331 2°40.529 13.1148 0.145946 0.828608 -1.731873
2008-03-31 09:10:53 51°18.341 2°40.506 13.1163 0.145946 0.828608 -1.731873
2008-03-31 09:10:58 51°18.35 2°40.483 13.1175 0.145946 0.828638 -1.731873
2008-03-31 09:11:03 51°18.36 2°40.459 13.1185 0.145946 0.828638 -1.731873
2008-03-31 09:11:07 51°18.367 2°40.441 13.1197 0.145946 0.828653 -1.731873
2008-03-31 09:11:13 51°18.379 2°40.413 13.1208 0.145946 0.828653 -1.731873
2008-03-31 09:11:18 51°18.388 2°40.39 13.1219 0.145946 0.828653 -1.731873
2008-03-31 09:11:23 51°18.398 2°40.367 13.123 0.145946 0.828668 -1.731873
2008-03-31 09:11:27 51°18.406 2°40.348 13.1245 0.145946 0.828668 -1.731873
2008-03-31 09:11:33 51°18.418 2°40.321 13.1254 0.145946 0.828683 -1.731873
2008-03-31 09:11:38 51°18.428 2°40.299 13.1269 0.145946 0.828699 -1.731873
2008-03-31 09:11:43 51°18.438 2°40.276 13.1277 0.145946 0.828699 -1.731873
2008-03-31 09:11:47 51°18.447 2°40.258 13.1286 0.145946 0.828714 -1.731873
2008-03-31 09:11:53 51°18.459 2°40.231 13.13 0.145946 0.828744 -1.731873
2008-03-31 09:11:58 51°18.469 2°40.208 13.1313 0.145946 0.828759 -1.731873
2008-03-31 09:12:03 51°18.479 2°40.185 13.1324 0.145946 0.828774 -1.731873
2008-03-31 09:12:08 51°18.489 2°40.162 13.1337 0.145946 0.828789 -1.731873
2008-03-31 09:12:13 51°18.499 2°40.139 13.1352 0.145946 0.828789 -1.731873
2008-03-31 09:12:18 51°18.509 2°40.116 13.136 0.145946 0.828804 -1.731873
2008-03-31 09:12:23 51°18.518 2°40.092 13.1375 0.145946 0.828804 -1.731873
2008-03-31 09:12:28 51°18.528 2°40.069 13.138 0.145946 0.828804 -1.731873
2008-03-31 09:12:33 51°18.538 2°40.046 13.1395 0.145946 0.828819 -1.731873
2008-03-31 09:12:38 51°18.547 2°40.023 13.1409 0.145946 0.828834 -1.731873
2008-03-31 09:12:43 51°18.557 2°40 13.1418 0.145946 0.828849 -1.731873
2008-03-31 09:12:48 51°18.567 2°39.977 13.143 0.145946 0.828849 -1.731873
2008-03-31 09:12:53 51°18.577 2°39.954 13.1443 0.145946 0.828849 -1.731873
2008-03-31 09:12:58 51°18.587 2°39.931 13.1453 0.145946 0.828864 -1.731873
2008-03-31 09:13:02 51°18.595 2°39.913 13.1466 0.145946 0.82888 -1.731873
2008-03-31 09:13:07 51°18.605 2°39.89 13.1478 0.145946 0.828895 -1.731873
2008-03-31 09:13:13 51°18.617 2°39.862 13.1489 0.145946 0.828895 -1.731873
2008-03-31 09:13:18 51°18.627 2°39.84 13.1501 0.145946 0.82891 -1.731873
2008-03-31 09:13:23 51°18.637 2°39.817 13.1512 0.145946 0.828925 -1.731873
2008-03-31 09:13:27 51°18.645 2°39.799 13.1521 0.145946 0.828955 -1.731873
2008-03-31 09:13:33 51°18.657 2°39.771 13.1534 0.145946 0.82897 -1.731873
2008-03-31 09:13:38 51°18.667 2°39.749 13.1549 0.145946 0.828985 -1.731873
2008-03-31 09:13:43 51°18.677 2°39.725 13.1561 0.145946 0.828985 -1.731873
2008-03-31 09:13:47 51°18.684 2°39.707 13.157 0.145843 0.828373 -1.731873
2008-03-31 09:13:53 51°18.696 2°39.679 13.1584 0.145843 0.828388 -1.731873
2008-03-31 09:13:58 51°18.706 2°39.656 13.1596 0.145843 0.828388 -1.731873
2008-03-31 09:14:03 51°18.715 2°39.633 13.1607 0.145843 0.828403 -1.731873
2008-03-31 09:14:07 51°18.723 2°39.614 13.1618 0.145843 0.828403 -1.731873
2008-03-31 09:14:13 51°18.735 2°39.587 13.1631 0.145843 0.828403 -1.731873
2008-03-31 09:14:18 51°18.745 2°39.563 13.164 0.145843 0.828418 -1.731873
2008-03-31 09:14:23 51°18.755 2°39.541 13.1655 0.145843 0.828434 -1.766697
2008-03-31 09:14:27 51°18.763 2°39.522 13.1665 0.145843 0.828449 -1.731873
2008-03-31 09:14:33 51°18.775 2°39.495 13.1674 0.145843 0.828464 -1.731873
2008-03-31 09:14:38 51°18.786 2°39.472 13.1691 0.145843 0.828494 -1.731873
2008-03-31 09:14:43 51°18.795 2°39.449 13.1702 0.145843 0.828509 -1.731873
2008-03-31 09:14:48 51°18.805 2°39.425 13.1711 0.145843 0.828509 -1.731873
2008-03-31 09:14:53 51°18.815 2°39.402 13.1727 0.145843 0.828524 -1.731873
2008-03-31 09:14:58 51°18.825 2°39.379 13.1739 0.145843 0.828524 -1.731873
2008-03-31 09:15:03 51°18.834 2°39.356 13.1748 0.145843 0.828539 -1.731873
2008-03-31 09:15:08 51°18.844 2°39.332 13.1764 0.145843 0.828554 -1.731873
2008-03-31 09:15:13 51°18.854 2°39.309 13.1774 0.145843 0.828554 -1.731873
2008-03-31 09:15:18 51°18.863 2°39.285 13.1786 0.145843 0.828554 -1.731873
2008-03-31 09:15:23 51°18.873 2°39.262 13.1798 0.145843 0.828569 -1.731873
2008-03-31 09:15:28 51°18.882 2°39.239 13.1812 0.145843 0.828569 -1.731873
2008-03-31 09:15:33 51°18.892 2°39.215 13.1822 0.145843 0.828584 -1.731873
2008-03-31 09:15:38 51°18.902 2°39.192 13.1833 0.145843 0.8286 -1.731873
2008-03-31 09:15:43 51°18.912 2°39.169 13.1844 0.145843 0.8286 -1.731873
2008-03-31 09:15:47 51°18.92 2°39.15 13.1858 0.145843 0.828615 -1.731873
2008-03-31 09:15:53 51°18.932 2°39.123 13.1868 0.145843 0.82863 -1.731873
2008-03-31 09:15:58 51°18.942 2°39.1 13.1881 0.145843 0.828645 -1.731873
2008-03-31 09:16:03 51°18.952 2°39.077 13.1896 0.145843 0.82866 -1.731873
2008-03-31 09:16:07 51°18.96 2°39.058 13.1906 0.145843 0.828675 -1.731873
2008-03-31 09:16:13 51°18.972 2°39.03 13.1916 0.145843 0.828675 -1.731873
2008-03-31 09:16:18 51°18.982 2°39.008 13.1932 0.145843 0.828675 -1.731873
2008-03-31 09:16:23 51°18.992 2°38.984 13.1943 0.145843 0.828705 -1.731873
2008-03-31 09:16:28 51°19.002 2°38.961 13.1956 0.145843 0.828705 -1.731873
2008-03-31 09:16:33 51°19.012 2°38.938 13.1964 0.145843 0.82872 -1.731873
2008-03-31 09:16:38 51°19.022 2°38.915 13.1979 0.145843 0.828735 -1.731873
2008-03-31 09:16:43 51°19.031 2°38.892 13.1992 0.145843 0.82875 -1.731873
2008-03-31 09:16:48 51°19.041 2°38.868 13.2005 0.145843 0.82875 -1.731873
2008-03-31 09:16:53 51°19.05 2°38.845 13.2019 0.145843 0.82875 -1.731873
2008-03-31 09:16:58 51°19.06 2°38.822 13.203 0.145843 0.828766 -1.731873
2008-03-31 09:17:03 51°19.069 2°38.798 13.2039 0.145843 0.828766 -1.731873
2008-03-31 09:17:07 51°19.077 2°38.78 13.2054 0.145843 0.828781 -1.731873
2008-03-31 09:17:13 51°19.089 2°38.752 13.2067 0.145843 0.828781 -1.731873
2008-03-31 09:17:18 51°19.098 2°38.728 13.2075 0.145843 0.828796 -1.731873
2008-03-31 09:17:23 51°19.108 2°38.705 13.209 0.145843 0.828811 -1.731873
2008-03-31 09:17:28 51°19.117 2°38.682 13.2101 0.145843 0.828826 -1.731873
2008-03-31 09:17:33 51°19.127 2°38.658 13.2113 0.145843 0.828841 -1.731873
2008-03-31 09:17:38 51°19.137 2°38.636 13.2126 0.145843 0.828841 -1.731873
2008-03-31 09:17:43 51°19.147 2°38.613 13.2136 0.145843 0.828841 -1.731873
2008-03-31 09:17:47 51°19.155 2°38.594 13.2147 0.145843 0.828856 -1.731873
2008-03-31 09:17:53 51°19.167 2°38.567 13.2163 0.145843 0.828871 -1.731873
2008-03-31 09:17:58 51°19.177 2°38.544 13.217 0.145843 0.828886 -1.731873
2008-03-31 09:18:03 51°19.187 2°38.521 13.2187 0.145843 0.828901 -1.731873
2008-03-31 09:18:07 51°19.195 2°38.502 13.2199 0.14574 0.828304 -1.731873
2008-03-31 09:18:13 51°19.206 2°38.474 13.2209 0.14574 0.828319 -1.731873
2008-03-31 09:18:18 51°19.216 2°38.451 13.222 0.14574 0.828319 -1.731873
2008-03-31 09:18:23 51°19.226 2°38.428 13.2234 0.14574 0.828319 -1.731873
2008-03-31 09:18:28 51°19.236 2°38.404 13.2246 0.14574 0.828334 -1.731873
2008-03-31 09:18:33 51°19.245 2°38.381 13.2262 0.14574 0.828334 -1.731873
2008-03-31 09:18:38 51°19.255 2°38.358 13.2271 0.14574 0.828349 -1.731873
2008-03-31 09:18:43 51°19.265 2°38.335 13.2283 0.14574 0.828365 -1.731873
2008-03-31 09:18:47 51°19.273 2°38.317 13.2296 0.14574 0.828365 -1.731873
2008-03-31 09:18:53 51°19.285 2°38.289 13.2306 0.14574 0.82838 -1.731873
2008-03-31 09:18:58 51°19.296 2°38.267 13.2316 0.14574 0.828395 -1.731873
2008-03-31 09:19:03 51°19.306 2°38.244 13.2328 0.14574 0.82838 -1.766697
2008-03-31 09:19:08 51°19.318 2°38.224 13.2348 0.14574 0.82841 -1.731873
2008-03-31 09:19:13 51°19.33 2°38.203 13.2351 0.14574 0.82841 -1.731873
2008-03-31 09:19:18 51°19.342 2°38.182 13.2368 0.14574 0.82841 -1.731873
2008-03-31 09:19:23 51°19.354 2°38.162 13.2377 0.14574 0.828455 -1.731873
2008-03-31 09:19:28 51°19.367 2°38.142 13.2393 0.14574 0.828455 -1.731873
2008-03-31 09:19:33 51°19.38 2°38.123 13.2401 0.14574 0.82847 -1.731873
2008-03-31 09:19:38 51°19.392 2°38.103 13.2416 0.14574 0.828485 -1.731873
2008-03-31 09:19:43 51°19.405 2°38.083 13.2431 0.14574 0.8285 -1.731873
2008-03-31 09:19:48 51°19.418 2°38.064 13.2439 0.14574 0.8285 -1.731873
2008-03-31 09:19:53 51°19.43 2°38.044 13.2458 0.14574 0.8285 -1.731873
2008-03-31 09:19:58 51°19.443 2°38.024 13.2468 0.14574 0.828516 -1.731873
2008-03-31 09:20:03 51°19.456 2°38.004 13.2478 0.14574 0.828516 -1.731873
2008-03-31 09:20:07 51°19.466 2°37.989 13.2491 0.14574 0.828531 -1.731873
2008-03-31 09:20:13 51°19.481 2°37.965 13.2503 0.14574 0.828531 -1.731873
2008-03-31 09:20:18 51°19.494 2°37.945 13.2515 0.14574 0.828531 -1.731873
2008-03-31 09:20:23 51°19.508 2°37.928 13.2529 0.14574 0.828531 -1.731873
2008-03-31 09:20:27 51°19.52 2°37.915 13.2538 0.14574 0.828531 -1.766697
2008-03-31 09:20:33 51°19.539 2°37.899 13.2555 0.14574 0.828546 -1.766697
2008-03-31 09:20:38 51°19.555 2°37.886 13.2562 0.14574 0.828576 -1.731873
2008-03-31 09:20:43 51°19.571 2°37.873 13.2576 0.14574 0.828576 -1.731873
2008-03-31 09:20:47 51°19.583 2°37.863 13.259 0.14574 0.828606 -1.731873
2008-03-31 09:20:53 51°19.602 2°37.848 13.2599 0.14574 0.828636 -1.731873
2008-03-31 09:20:58 51°19.618 2°37.835 13.2614 0.14574 0.828667 -1.731873
2008-03-31 09:21:03 51°19.634 2°37.821 13.2625 0.14574 0.828667 -1.731873
2008-03-31 09:21:08 51°19.649 2°37.807 13.2644 0.14574 0.828682 -1.731873
2008-03-31 09:21:13 51°19.665 2°37.793 13.2654 0.14574 0.828682 -1.731873
2008-03-31 09:21:18 51°19.68 2°37.779 13.2661 0.14574 0.828682 -1.731873
2008-03-31 09:21:23 51°19.696 2°37.765 13.2677 0.14574 0.828667 -1.731873
2008-03-31 09:21:28 51°19.712 2°37.752 13.2688 0.14574 0.828667 -1.731873
2008-03-31 09:21:33 51°19.728 2°37.74 13.27 0.14574 0.828667 -1.731873
2008-03-31 09:21:38 51°19.744 2°37.728 13.2714 0.14574 0.828682 -1.731873
2008-03-31 09:21:43 51°19.761 2°37.717 13.2728 0.14574 0.828697 -1.731873
2008-03-31 09:21:48 51°19.778 2°37.706 13.2737 0.14574 0.828697 -1.731873
2008-03-31 09:21:53 51°19.794 2°37.696 13.2748 0.14574 0.828712 -1.731873
2008-03-31 09:21:58 51°19.811 2°37.686 13.2761 0.14574 0.828727 -1.731873
2008-03-31 09:22:02 51°19.824 2°37.678 13.2773 0.14574 0.828772 -1.766697
2008-03-31 09:22:08 51°19.845 2°37.665 13.2786 0.14574 0.828788 -1.731873
2008-03-31 09:22:13 51°19.861 2°37.655 13.2798 0.14574 0.828818 -1.731873
2008-03-31 09:22:18 51°19.878 2°37.644 13.281 0.14574 0.828818 -1.731873
2008-03-31 09:22:23 51°19.894 2°37.631 13.2823 0.14574 0.828848 -1.731873
2008-03-31 09:22:28 51°19.909 2°37.617 13.2838 0.14574 0.828878 -1.731873
2008-03-31 09:22:33 51°19.924 2°37.601 13.2849 0.14574 0.828878 -1.697049
2008-03-31 09:22:38 51°19.938 2°37.584 13.2863 0.14574 0.828878 -1.731873
2008-03-31 09:22:43 51°19.952 2°37.568 13.2873 0.14574 0.828878 -1.731873
2008-03-31 09:22:47 51°19.963 2°37.553 13.2882 0.14574 0.828878 -1.731873
2008-03-31 09:22:53 51°19.98 2°37.532 13.2895 0.14574 0.828863 -1.731873
2008-03-31 09:22:58 51°19.994 2°37.515 13.2905 0.145638 0.82825 -1.731873
2008-03-31 09:23:03 51°20.008 2°37.498 13.2921 0.145638 0.82825 -1.731873
2008-03-31 09:23:07 51°20.019 2°37.484 13.293 0.145638 0.82825 -1.731873
2008-03-31 09:23:13 51°20.037 2°37.464 13.2936 0.145638 0.82825 -1.731873
2008-03-31 09:23:18 51°20.051 2°37.449 13.2948 0.145638 0.828265 -1.766697
2008-03-31 09:23:23 51°20.065 2°37.436 13.2964 0.145638 0.828281 -1.731873
2008-03-31 09:23:27 51°20.075 2°37.425 13.2974 0.145638 0.828326 -1.766697
2008-03-31 09:23:33 51°20.09 2°37.41 13.2986 0.145638 0.828356 -1.731873
2008-03-31 09:23:38 51°20.101 2°37.397 13.2999 0.145638 0.828401 -1.731873
2008-03-31 09:23:43 51°20.111 2°37.383 13.3011 0.145638 0.828447 -1.731873
2008-03-31 09:23:48 51°20.118 2°37.367 13.3024 0.145638 0.828447 -1.731873
2008-03-31 09:23:53 51°20.125 2°37.351 13.3032 0.145638 0.828477 -1.731873
2008-03-31 09:23:58 51°20.13 2°37.336 13.3049 0.145638 0.828477 -1.731873
2008-03-31 09:24:03 51°20.134 2°37.322 13.3062 0.145638 0.828492 -1.697049
2008-03-31 09:24:08 51°20.137 2°37.308 13.3074 0.145638 0.828492 -1.766697
2008-03-31 09:24:13 51°20.139 2°37.295 13.3083 0.145638 0.828477 -1.731873
2008-03-31 09:24:18 51°20.14 2°37.284 13.3097 0.145638 0.828477 -1.731873
2008-03-31 09:24:23 51°20.141 2°37.272 13.3107 0.145638 0.828492 -1.731873
2008-03-31 09:24:28 51°20.141 2°37.262 13.3118 0.145638 0.828492 -1.731873
2008-03-31 09:24:33 51°20.141 2°37.253 13.3128 0.145638 0.828492 -1.731873
2008-03-31 09:24:38 51°20.14 2°37.243 13.314 0.145638 0.828507 -1.731873
2008-03-31 09:24:43 51°20.139 2°37.234 13.3154 0.145638 0.828507 -1.731873
2008-03-31 09:24:47 51°20.138 2°37.227 13.3161 0.145638 0.828507 -1.731873
2008-03-31 09:24:53 51°20.137 2°37.218 13.3178 0.145638 0.828507 -1.731873
2008-03-31 09:24:58 51°20.135 2°37.21 13.3183 0.145638 0.828507 -1.731873
2008-03-31 09:25:03 51°20.134 2°37.202 13.3197 0.145638 0.828522 -1.731873
2008-03-31 09:25:07 51°20.133 2°37.196 13.321 0.145638 0.828522 -1.731873
2008-03-31 09:25:13 51°20.131 2°37.187 13.3221 0.145638 0.828537 -1.731873
2008-03-31 09:25:18 51°20.13 2°37.179 13.3231 0.145638 0.828537 -1.731873
2008-03-31 09:25:23 51°20.128 2°37.171 13.3243 0.145638 0.828553 -1.731873
2008-03-31 09:25:28 51°20.126 2°37.162 13.3254 0.145638 0.828583 -1.731873
2008-03-31 09:25:33 51°20.124 2°37.153 13.3269 0.145638 0.828583 -1.731873
2008-03-31 09:25:38 51°20.122 2°37.144 13.3277 0.145638 0.828598 -1.731873
2008-03-31 09:25:43 51°20.119 2°37.135 13.3289 0.145638 0.828613 -1.731873
2008-03-31 09:25:48 51°20.117 2°37.125 13.33 0.145638 0.828613 -1.731873
2008-03-31 09:25:53 51°20.114 2°37.115 13.3311 0.145638 0.828628 -1.731873
2008-03-31 09:25:58 51°20.112 2°37.105 13.3325 0.145638 0.828628 -1.731873
2008-03-31 09:26:03 51°20.109 2°37.095 13.3337 0.145638 0.828628 -1.731873
2008-03-31 09:26:07 51°20.106 2°37.087 13.3348 0.145638 0.828628 -1.731873
2008-03-31 09:26:13 51°20.102 2°37.074 13.3357 0.145638 0.828628 -1.731873
2008-03-31 09:26:18 51°20.099 2°37.064 13.3371 0.145638 0.828628 -1.731873
2008-03-31 09:26:23 51°20.096 2°37.053 13.3383 0.145638 0.828643 -1.731873
2008-03-31 09:26:28 51°20.093 2°37.042 13.3393 0.145638 0.828674 -1.731873
2008-03-31 09:26:33 51°20.091 2°37.03 13.3402 0.145638 0.828689 -1.731873
2008-03-31 09:26:38 51°20.088 2°37.019 13.3411 0.145638 0.828704 -1.731873
2008-03-31 09:26:43 51°20.087 2°37.009 13.3424 0.145638 0.828704 -1.731873
2008-03-31 09:26:48 51°20.086 2°36.999 13.3438 0.145638 0.828719 -1.731873
2008-03-31 09:26:53 51°20.085 2°36.989 13.3451 0.145638 0.828749 -1.731873
2008-03-31 09:26:58 51°20.084 2°36.98 13.3458 0.145638 0.828779 -1.731873
2008-03-31 09:27:03 51°20.083 2°36.971 13.3474 0.145638 0.828795 -1.731873
2008-03-31 09:27:07 51°20.083 2°36.964 13.3485 0.145638 0.828825 -1.731873
2008-03-31 09:27:13 51°20.082 2°36.954 13.3498 0.145638 0.82884 -1.731873
2008-03-31 09:27:18 51°20.081 2°36.946 13.3509 0.145638 0.82884 -1.731873
2008-03-31 09:27:23 51°20.081 2°36.939 13.3524 0.145638 0.828855 -1.731873
2008-03-31 09:27:28 51°20.08 2°36.932 13.3532 0.145638 0.828855 -1.731873
2008-03-31 09:27:33 51°20.079 2°36.925 13.3549 0.145638 0.828855 -1.731873
2008-03-31 09:27:38 51°20.079 2°36.918 13.3558 0.145535 0.828242 -1.731873
2008-03-31 09:27:43 51°20.078 2°36.912 13.3571 0.145535 0.828242 -1.731873
2008-03-31 09:27:47 51°20.078 2°36.908 13.3583 0.145535 0.828242 -1.731873
2008-03-31 09:27:53 51°20.077 2°36.901 13.3597 0.145535 0.828257 -1.731873
2008-03-31 09:27:58 51°20.077 2°36.896 13.3609 0.145535 0.828272 -1.731873
2008-03-31 09:28:03 51°20.077 2°36.891 13.3617 0.145535 0.828287 -1.731873
2008-03-31 09:28:08 51°20.077 2°36.887 13.363 0.145535 0.828287 -1.731873
2008-03-31 09:28:13 51°20.077 2°36.882 13.3643 0.145535 0.828287 -1.731873
2008-03-31 09:28:18 51°20.077 2°36.878 13.3656 0.145535 0.828318 -1.731873
2008-03-31 09:28:23 51°20.077 2°36.875 13.3668 0.145535 0.828333 -1.731873